Observation data for Odell on 02/22/2019      Previous  Date  Next       Current Mesonet Observations  Soil Data  Daily Summary Page  Observations in Plain Language
KOD1 220600Z 09012KT 03/02 A2998 RMK A01 T00340022  RH  092%=      5-min Rain = 0
KOD1 220601Z 09011KT 04/02 A2998 RMK A01 T00360023  RH  092%=      5-min Rain = 0
KOD1 220602Z 09010KT 04/02 A2998 RMK A01 T00350022  RH  091%=      5-min Rain = 0
KOD1 220603Z 09011KT 03/02 A2998 RMK A01 T00340022  RH  091%=      5-min Rain = 0
KOD1 220604Z 09011KT 04/02 A2998 RMK A01 T00350023  RH  092%=      5-min Rain = 0
KOD1 220605Z 09011KT 04/02 A2998 RMK A01 T00350023  RH  092%=      5-min Rain = 0
KOD1 220606Z 09011KT 04/02 A2998 RMK A01 T00350022  RH  091%=      5-min Rain = 0
KOD1 220607Z 10011KT 04/02 A2998 RMK A01 T00350022  RH  091%=      5-min Rain = 0
KOD1 220608Z 09011KT 04/02 A2998 RMK A01 T00350023  RH  092%=      5-min Rain = 0
KOD1 220609Z 09010KT 04/02 A2998 RMK A01 T00350022  RH  091%=      5-min Rain = 0
KOD1 220610Z 10011KT 03/02 A2998 RMK A01 T00340022  RH  092%=      5-min Rain = 0
KOD1 220611Z 09010KT 03/02 A2998 RMK A01 T00340022  RH  092%=      5-min Rain = 0
KOD1 220612Z 10011KT 03/02 A2998 RMK A01 T00340022  RH  092%=      5-min Rain = 0
KOD1 220613Z 10011KT 03/02 A2998 RMK A01 T00340022  RH  092%=      5-min Rain = 0
KOD1 220614Z 10011KT 03/02 A2998 RMK A01 T00340022  RH  092%=      5-min Rain = 0
KOD1 220615Z 10010KT 03/02 A2998 RMK A01 T00340022  RH  092%=      5-min Rain = 0
KOD1 220616Z 10011KT 03/02 A2998 RMK A01 T00330022  RH  092%=      5-min Rain = 0
KOD1 220617Z 10011KT 03/02 A2998 RMK A01 T00330022  RH  092%=      5-min Rain = 0
KOD1 220618Z 10011KT 03/02 A2997 RMK A01 T00330022  RH  092%=      5-min Rain = 0
KOD1 220619Z 10012KT 03/02 A2997 RMK A01 T00330022  RH  092%=      5-min Rain = 0
KOD1 220620Z 10012KT 03/02 A2997 RMK A01 T00330022  RH  092%=      5-min Rain = 0
KOD1 220621Z 10012KT 03/02 A2997 RMK A01 T00330022  RH  092%=      5-min Rain = 0
KOD1 220622Z 10012KT 03/02 A2997 RMK A01 T00330022  RH  092%=      5-min Rain = 0
KOD1 220623Z 10011KT 03/02 A2997 RMK A01 T00330022  RH  092%=      5-min Rain = 0
KOD1 220624Z 10011KT 03/02 A2997 RMK A01 T00330021  RH  092%=      5-min Rain = 0
KOD1 220625Z 10012KT 03/02 A2997 RMK A01 T00330021  RH  092%=      5-min Rain = 0
KOD1 220626Z 10012KT 03/02 A2997 RMK A01 T00330022  RH  092%=      5-min Rain = 0
KOD1 220627Z 10011KT 03/02 A2997 RMK A01 T00330022  RH  092%=      5-min Rain = 0
KOD1 220628Z 10012KT 03/02 A2997 RMK A01 T00330022  RH  092%=      5-min Rain = 0
KOD1 220629Z 09011KT 03/02 A2997 RMK A01 T00340022  RH  092%=      5-min Rain = 0
KOD1 220630Z 10011KT 03/02 A2997 RMK A01 T00330022  RH  092%=      5-min Rain = 0
KOD1 220631Z 10012KT 03/02 A2997 RMK A01 T00330022  RH  092%=      5-min Rain = 0
KOD1 220632Z 10010KT 03/02 A2998 RMK A01 T00330021  RH  092%=      5-min Rain = 0
KOD1 220633Z 10010KT 03/02 A2998 RMK A01 T00330021  RH  092%=      5-min Rain = 0
KOD1 220634Z 10010KT 03/02 A2998 RMK A01 T00320021  RH  092%=      5-min Rain = 0
KOD1 220635Z 10009KT 03/02 A2998 RMK A01 T00320020  RH  092%=      5-min Rain = 0
KOD1 220636Z 10010KT 03/02 A2998 RMK A01 T00320020  RH  092%=      5-min Rain = 0
KOD1 220637Z 10010KT 03/02 A2998 RMK A01 T00320020  RH  092%=      5-min Rain = 0
KOD1 220638Z 10010KT 03/02 A2998 RMK A01 T00320020  RH  092%=      5-min Rain = 0
KOD1 220639Z 10009KT 03/02 A2998 RMK A01 T00310020  RH  092%=      5-min Rain = 0
KOD1 220640Z 10010KT 03/02 A2998 RMK A01 T00310020  RH  093%=      5-min Rain = 0
KOD1 220641Z 10010KT 03/02 A2998 RMK A01 T00310020  RH  093%=      5-min Rain = 0
KOD1 220642Z 10009KT 03/02 A2998 RMK A01 T00310021  RH  093%=      5-min Rain = 0
KOD1 220643Z 10009KT 03/02 A2998 RMK A01 T00310020  RH  092%=      5-min Rain = 0
KOD1 220644Z 10009KT 03/02 A2998 RMK A01 T00310019  RH  092%=      5-min Rain = 0
KOD1 220645Z 09008KT 03/02 A2998 RMK A01 T00310020  RH  093%=      5-min Rain = 0
KOD1 220646Z 10008KT 03/02 A2998 RMK A01 T00300019  RH  092%=      5-min Rain = 0
KOD1 220647Z 10009KT 03/02 A2998 RMK A01 T00300020  RH  093%=      5-min Rain = 0
KOD1 220648Z 10009KT 03/02 A2999 RMK A01 T00310020  RH  093%=      5-min Rain = 0
KOD1 220649Z 10009KT 03/02 A2999 RMK A01 T00320021  RH  092%=      5-min Rain = 0
KOD1 220650Z 10009KT 03/02 A2999 RMK A01 T00320020  RH  092%=      5-min Rain = 0
KOD1 220651Z 10009KT 03/02 A2999 RMK A01 T00320020  RH  092%=      5-min Rain = 0
KOD1 220652Z 10010KT 03/02 A2999 RMK A01 T00320021  RH  092%=      5-min Rain = 0
KOD1 220653Z 10010KT 03/02 A30 RMK A01 T00330021  RH  092%=      5-min Rain = 0
KOD1 220654Z 10009KT 03/02 A30 RMK A01 T00330021  RH  092%=      5-min Rain = 0
KOD1 220655Z 10010KT 03/02 A30 RMK A01 T00320020  RH  091%=      5-min Rain = 0
KOD1 220656Z 11009KT 03/02 A30 RMK A01 T00320020  RH  092%=      5-min Rain = 0
KOD1 220657Z 10010KT 03/02 A30 RMK A01 T00320020  RH  092%=      5-min Rain = 0
KOD1 220658Z 11009KT 03/02 A30 RMK A01 T00320019  RH  091%=      5-min Rain = 0
KOD1 220659Z 10009KT 03/02 A30 RMK A01 T00320019  RH  091%=      5-min Rain = 0
KOD1 220700Z 10009KT 03/02 A30 RMK A01 T00310019  RH  092%=      5-min Rain = 0
KOD1 220701Z 10010KT 03/02 A30 RMK A01 T00310019  RH  092%=      5-min Rain = 0
KOD1 220702Z 10009KT 03/02 A30 RMK A01 T00310019  RH  092%=      5-min Rain = 0
KOD1 220703Z 10010KT 03/02 A30 RMK A01 T00310019  RH  092%=      5-min Rain = 0
KOD1 220704Z 10010KT 03/02 A30 RMK A01 T00310019  RH  092%=      5-min Rain = 0
KOD1 220705Z 10008KT 03/02 A30 RMK A01 T00310018  RH  092%=      5-min Rain = 0
KOD1 220706Z 10009KT 03/02 A30 RMK A01 T00300018  RH  092%=      5-min Rain = 0
KOD1 220707Z 10010KT 03/02 A30 RMK A01 T00300018  RH  092%=      5-min Rain = 0
KOD1 220708Z 10010KT 03/02 A30 RMK A01 T00300018  RH  092%=      5-min Rain = 0
KOD1 220709Z 10010KT 03/02 A30 RMK A01 T00290017  RH  092%=      5-min Rain = 0
KOD1 220710Z 10012KT 03/02 A2999 RMK A01 T00290019  RH  093%=      5-min Rain = 0
KOD1 220711Z 10011KT 03/02 A2999 RMK A01 T00300019  RH  092%=      5-min Rain = 0
KOD1 220712Z 10011KT 03/02 A2999 RMK A01 T00290018  RH  092%=      5-min Rain = 0
KOD1 220713Z 10011KT 03/02 A2999 RMK A01 T00290018  RH  093%=      5-min Rain = 0
KOD1 220714Z 10011KT 03/02 A2999 RMK A01 T00290018  RH  092%=      5-min Rain = 0
KOD1 220715Z 10010KT 03/02 A2999 RMK A01 T00290018  RH  093%=      5-min Rain = 0
KOD1 220716Z 10010KT 03/02 A2999 RMK A01 T00290018  RH  093%=      5-min Rain = 0
KOD1 220717Z 10010KT 03/02 A2999 RMK A01 T00280017  RH  093%=      5-min Rain = 0
KOD1 220718Z 10010KT 03/02 A2999 RMK A01 T00280018  RH  093%=      5-min Rain = 0
KOD1 220719Z 11011KT 03/02 A2999 RMK A01 T00290019  RH  093%=      5-min Rain = 0
KOD1 220720Z 10011KT 03/02 A2999 RMK A01 T00290019  RH  093%=      5-min Rain = 0
KOD1 220721Z 11011KT 03/02 A2999 RMK A01 T00300019  RH  093%=      5-min Rain = 0
KOD1 220722Z 11010KT 03/02 A2999 RMK A01 T00300019  RH  093%=      5-min Rain = 0
KOD1 220723Z 11009KT 03/02 A2999 RMK A01 T00290018  RH  093%=      5-min Rain = 0
KOD1 220724Z 11011KT 03/02 A2999 RMK A01 T00290019  RH  093%=      5-min Rain = 0
KOD1 220725Z 11009KT 03/02 A2999 RMK A01 T00290019  RH  093%=      5-min Rain = 0
KOD1 220726Z 11010KT 03/02 A2999 RMK A01 T00290019  RH  093%=      5-min Rain = 0
KOD1 220727Z 10009KT 03/02 A2999 RMK A01 T00290019  RH  093%=      5-min Rain = 0
KOD1 220728Z 10010KT 03/02 A2999 RMK A01 T00290018  RH  093%=      5-min Rain = 0
KOD1 220729Z 10010KT 03/02 A2999 RMK A01 T00280018  RH  093%=      5-min Rain = 0
KOD1 220730Z 10010KT 03/02 A2999 RMK A01 T00280018  RH  093%=      5-min Rain = 0
KOD1 220731Z 10010KT 03/02 A2999 RMK A01 T00280019  RH  093%=      5-min Rain = 0
KOD1 220732Z 10009KT 03/02 A2999 RMK A01 T00280018  RH  093%=      5-min Rain = 0
KOD1 220733Z 10007KT 03/02 A2999 RMK A01 T00280018  RH  093%=      5-min Rain = 0
KOD1 220734Z 10009KT 03/02 A2999 RMK A01 T00270017  RH  093%=      5-min Rain = 0
KOD1 220735Z 09008KT 03/02 A30 RMK A01 T00270018  RH  094%=      5-min Rain = 0
KOD1 220736Z 10008KT 03/02 A30 RMK A01 T00280018  RH  094%=      5-min Rain = 0
KOD1 220737Z 10008KT 03/02 A30 RMK A01 T00280018  RH  093%=      5-min Rain = 0
KOD1 220738Z 09008KT 03/02 A30 RMK A01 T00270018  RH  093%=      5-min Rain = 0
KOD1 220739Z 09008KT 03/02 A2999 RMK A01 T00270017  RH  093%=      5-min Rain = 0
KOD1 220740Z 09009KT 03/02 A2999 RMK A01 T00270018  RH  094%=      5-min Rain = 0
KOD1 220741Z 09008KT 03/02 A2999 RMK A01 T00280019  RH  094%=      5-min Rain = 0
KOD1 220742Z 09009KT 03/02 A2999 RMK A01 T00280019  RH  094%=      5-min Rain = 0
KOD1 220743Z 09009KT 03/02 A2999 RMK A01 T00280019  RH  094%=      5-min Rain = 0
KOD1 220744Z 09010KT 03/02 A2999 RMK A01 T00280019  RH  094%=      5-min Rain = 0
KOD1 220745Z 09010KT 03/02 A2999 RMK A01 T00290019  RH  094%=      5-min Rain = 0
KOD1 220746Z 09009KT 03/02 A2999 RMK A01 T00290020  RH  094%=      5-min Rain = 0
KOD1 220747Z 10009KT 03/02 A2999 RMK A01 T00290019  RH  093%=      5-min Rain = 0
KOD1 220748Z 10011KT 03/02 A2999 RMK A01 T00290020  RH  094%=      5-min Rain = 0
KOD1 220749Z 09010KT 03/02 A2999 RMK A01 T00290020  RH  094%=      5-min Rain = 0
KOD1 220750Z 09011KT 03/02 A2999 RMK A01 T00290020  RH  094%=      5-min Rain = 0
KOD1 220751Z 09010KT 03/02 A2999 RMK A01 T00300021  RH  094%=      5-min Rain = 0
KOD1 220752Z 09011KT 03/02 A2999 RMK A01 T00300021  RH  094%=      5-min Rain = 0
KOD1 220753Z 09010KT 03/02 A2999 RMK A01 T00300021  RH  094%=      5-min Rain = 0
KOD1 220754Z 09009KT 03/02 A2999 RMK A01 T00300021  RH  094%=      5-min Rain = 0
KOD1 220755Z 09010KT 03/02 A2999 RMK A01 T00300021  RH  094%=      5-min Rain = 0
KOD1 220756Z 09011KT 03/02 A2999 RMK A01 T00310021  RH  094%=      5-min Rain = 0
KOD1 220757Z 09011KT 03/02 A2999 RMK A01 T00310021  RH  094%=      5-min Rain = 0
KOD1 220758Z 09010KT 03/02 A2999 RMK A01 T00310021  RH  093%=      5-min Rain = 0
KOD1 220759Z 09011KT 03/02 A2999 RMK A01 T00320022  RH  093%=      5-min Rain = 0
KOD1 220800Z 09010KT 03/02 A2999 RMK A01 T00320022  RH  093%=      5-min Rain = 0
KOD1 220801Z 09010KT 03/02 A2999 RMK A01 T00310022  RH  093%=      5-min Rain = 0
KOD1 220802Z 09012KT 03/02 A2999 RMK A01 T00320022  RH  093%=      5-min Rain = 0
KOD1 220803Z 09010KT 03/02 A2999 RMK A01 T00320022  RH  093%=      5-min Rain = 0
KOD1 220804Z 09010KT 03/02 A2999 RMK A01 T00320022  RH  093%=      5-min Rain = 0
KOD1 220805Z 09010KT 03/02 A2999 RMK A01 T00320022  RH  093%=      5-min Rain = 0
KOD1 220806Z 09009KT 03/02 A2999 RMK A01 T00320022  RH  093%=      5-min Rain = 0
KOD1 220807Z 09012KT 03/02 A2999 RMK A01 T00320022  RH  093%=      5-min Rain = 0
KOD1 220808Z 09011KT 03/02 A2998 RMK A01 T00320022  RH  093%=      5-min Rain = 0
KOD1 220809Z 09011KT 03/02 A2999 RMK A01 T00310022  RH  093%=      5-min Rain = 0
KOD1 220810Z 09011KT 03/02 A2999 RMK A01 T00320022  RH  093%=      5-min Rain = 0
KOD1 220811Z 09010KT 03/02 A2998 RMK A01 T00320022  RH  093%=      5-min Rain = 0
KOD1 220812Z 09012KT 03/02 A2998 RMK A01 T00310022  RH  093%=      5-min Rain = 0
KOD1 220813Z 09010KT 03/02 A2998 RMK A01 T00320022  RH  093%=      5-min Rain = 0
KOD1 220814Z 09010KT 03/02 A2998 RMK A01 T00320022  RH  093%=      5-min Rain = 0
KOD1 220815Z 09011KT 03/02 A2998 RMK A01 T00310022  RH  093%=      5-min Rain = 0
KOD1 220816Z 09010KT 03/02 A2998 RMK A01 T00320022  RH  093%=      5-min Rain = 0
KOD1 220817Z 09009KT 03/02 A2998 RMK A01 T00320022  RH  093%=      5-min Rain = 0
KOD1 220818Z 09010KT 03/02 A2998 RMK A01 T00320022  RH  093%=      5-min Rain = 0
KOD1 220819Z 09010KT 03/02 A2998 RMK A01 T00320022  RH  093%=      5-min Rain = 0
KOD1 220820Z 09009KT 03/02 A2998 RMK A01 T00320022  RH  093%=      5-min Rain = 0
KOD1 220821Z 09010KT 03/02 A2998 RMK A01 T00320022  RH  093%=      5-min Rain = 0
KOD1 220822Z 09011KT 03/02 A2998 RMK A01 T00330022  RH  093%=      5-min Rain = 0
KOD1 220823Z 09009KT 03/02 A2998 RMK A01 T00330022  RH  093%=      5-min Rain = 0
KOD1 220824Z 09010KT 03/02 A2998 RMK A01 T00330022  RH  093%=      5-min Rain = 0
KOD1 220825Z 09009KT 03/02 A2998 RMK A01 T00330022  RH  093%=      5-min Rain = 0
KOD1 220826Z 09009KT 03/02 A2998 RMK A01 T00330022  RH  093%=      5-min Rain = 0
KOD1 220827Z 09008KT 03/02 A2998 RMK A01 T00330023  RH  093%=      5-min Rain = 0
KOD1 220828Z 09008KT 03/02 A2998 RMK A01 T00330023  RH  093%=      5-min Rain = 0
KOD1 220829Z 08008KT 03/02 A2998 RMK A01 T00330023  RH  093%=      5-min Rain = 0
KOD1 220830Z 09008KT 03/02 A2998 RMK A01 T00330023  RH  093%=      5-min Rain = 0
KOD1 220831Z 08006KT 03/02 A2998 RMK A01 T00330023  RH  093%=      5-min Rain = 0
KOD1 220832Z 08007KT 03/02 A2998 RMK A01 T00330023  RH  093%=      5-min Rain = 0
KOD1 220833Z 08007KT 03/02 A2998 RMK A01 T00330023  RH  093%=      5-min Rain = 0
KOD1 220834Z 08006KT 03/02 A2998 RMK A01 T00330023  RH  093%=      5-min Rain = 0
KOD1 220835Z 08007KT 03/02 A2998 RMK A01 T00330023  RH  093%=      5-min Rain = 0
KOD1 220836Z 07006KT 03/02 A2998 RMK A01 T00330023  RH  093%=      5-min Rain = 0
KOD1 220837Z 08005KT 03/02 A2998 RMK A01 T00340023  RH  093%=      5-min Rain = 0
KOD1 220838Z 08006KT 03/02 A2998 RMK A01 T00340024  RH  093%=      5-min Rain = 0
KOD1 220839Z 08006KT 03/02 A2998 RMK A01 T00340023  RH  093%=      5-min Rain = 0
KOD1 220840Z 08007KT 03/02 A2998 RMK A01 T00340024  RH  093%=      5-min Rain = 0
KOD1 220841Z 08007KT 03/02 A2998 RMK A01 T00340024  RH  093%=      5-min Rain = 0
KOD1 220842Z 08007KT 03/02 A2998 RMK A01 T00340024  RH  093%=      5-min Rain = 0
KOD1 220843Z 08007KT 03/02 A2998 RMK A01 T00340024  RH  093%=      5-min Rain = 0
KOD1 220844Z 08007KT 04/03 A2998 RMK A01 T00350025  RH  093%=      5-min Rain = 0
KOD1 220845Z 08007KT 04/03 A2998 RMK A01 T00350025  RH  093%=      5-min Rain = 0
KOD1 220846Z 08008KT 04/03 A2998 RMK A01 T00350025  RH  093%=      5-min Rain = 0
KOD1 220847Z 08007KT 04/03 A2997 RMK A01 T00360026  RH  093%=      5-min Rain = 0
KOD1 220848Z 08008KT 04/03 A2997 RMK A01 T00360026  RH  093%=      5-min Rain = 0
KOD1 220849Z 08007KT 04/03 A2997 RMK A01 T00360026  RH  093%=      5-min Rain = 0
KOD1 220850Z 08007KT 04/03 A2997 RMK A01 T00370026  RH  093%=      5-min Rain = 0
KOD1 220851Z 08008KT 04/03 A2997 RMK A01 T00370027  RH  093%=      5-min Rain = 0
KOD1 220852Z 08007KT 04/03 A2997 RMK A01 T00370026  RH  093%=      5-min Rain = 0
KOD1 220853Z 08008KT 04/03 A2997 RMK A01 T00370027  RH  093%=      5-min Rain = 0
KOD1 220854Z 08005KT 04/03 A2997 RMK A01 T00380027  RH  093%=      5-min Rain = 0
KOD1 220855Z 08007KT 04/03 A2997 RMK A01 T00380027  RH  093%=      5-min Rain = 0
KOD1 220856Z 07007KT 04/03 A2997 RMK A01 T00380028  RH  093%=      5-min Rain = 0
KOD1 220857Z 07008KT 04/03 A2997 RMK A01 T00380028  RH  093%=      5-min Rain = 0
KOD1 220858Z 08007KT 04/03 A2997 RMK A01 T00380028  RH  093%=      5-min Rain = 0
KOD1 220859Z 08007KT 04/03 A2997 RMK A01 T00390028  RH  093%=      5-min Rain = 0
KOD1 220900Z 08008KT 04/03 A2997 RMK A01 T00390028  RH  093%=      5-min Rain = 0
KOD1 220901Z 08008KT 04/03 A2997 RMK A01 T00390028  RH  093%=      5-min Rain = 0
KOD1 220902Z 08007KT 04/03 A2997 RMK A01 T00400029  RH  093%=      5-min Rain = 0
KOD1 220903Z 08007KT 04/03 A2997 RMK A01 T00400029  RH  093%=      5-min Rain = 0
KOD1 220904Z 08005KT 04/03 A2997 RMK A01 T00400029  RH  093%=      5-min Rain = 0
KOD1 220905Z 07005KT 04/03 A2997 RMK A01 T00400029  RH  093%=      5-min Rain = 0
KOD1 220906Z 08006KT 04/03 A2998 RMK A01 T00410030  RH  093%=      5-min Rain = 0
KOD1 220907Z 08006KT 04/03 A2998 RMK A01 T00410030  RH  093%=      5-min Rain = 0
KOD1 220908Z 08006KT 04/03 A2998 RMK A01 T00410030  RH  092%=      5-min Rain = 0
KOD1 220909Z 08006KT 04/03 A2998 RMK A01 T00420030  RH  092%=      5-min Rain = 0
KOD1 220910Z 08005KT 04/03 A2998 RMK A01 T00420031  RH  092%=      5-min Rain = 0
KOD1 220911Z 08006KT 04/03 A2998 RMK A01 T00420030  RH  092%=      5-min Rain = 0
KOD1 220912Z 07007KT 04/03 A2998 RMK A01 T00420031  RH  092%=      5-min Rain = 0
KOD1 220913Z 07006KT 04/03 A2998 RMK A01 T00420031  RH  092%=      5-min Rain = 0
KOD1 220914Z 07006KT 04/03 A2998 RMK A01 T00420031  RH  092%=      5-min Rain = 0
KOD1 220915Z 07005KT 04/03 A2998 RMK A01 T00420030  RH  092%=      5-min Rain = 0
KOD1 220916Z 07006KT 04/03 A2998 RMK A01 T00420030  RH  092%=      5-min Rain = 0
KOD1 220917Z 06005KT 04/03 A2998 RMK A01 T00420031  RH  092%=      5-min Rain = 0
KOD1 220918Z 07007KT 04/03 A2998 RMK A01 T00430031  RH  092%=      5-min Rain = 0
KOD1 220919Z 07007KT 04/03 A2998 RMK A01 T00430031  RH  092%=      5-min Rain = 0
KOD1 220920Z 08006KT 04/03 A2998 RMK A01 T00430031  RH  092%=      5-min Rain = 0
KOD1 220921Z 07008KT 04/03 A2998 RMK A01 T00430031  RH  092%=      5-min Rain = 0
KOD1 220922Z 07007KT 04/03 A2998 RMK A01 T00430031  RH  092%=      5-min Rain = 0
KOD1 220923Z 07006KT 04/03 A2998 RMK A01 T00430030  RH  092%=      5-min Rain = 0
KOD1 220924Z 07007KT 04/03 A2998 RMK A01 T00430031  RH  092%=      5-min Rain = 0
KOD1 220925Z 07006KT 04/03 A2998 RMK A01 T00430031  RH  092%=      5-min Rain = 0
KOD1 220926Z 07006KT 04/03 A2998 RMK A01 T00430031  RH  092%=      5-min Rain = 0
KOD1 220927Z 06006KT 04/03 A2998 RMK A01 T00430031  RH  092%=      5-min Rain = 0
KOD1 220928Z 07006KT 04/03 A2998 RMK A01 T00430031  RH  092%=      5-min Rain = 0
KOD1 220929Z 07007KT 04/03 A2998 RMK A01 T00430031  RH  092%=      5-min Rain = 0
KOD1 220930Z 07006KT 04/03 A2998 RMK A01 T00430031  RH  092%=      5-min Rain = 0
KOD1 220931Z 07007KT 04/03 A2998 RMK A01 T00430031  RH  092%=      5-min Rain = 0
KOD1 220932Z 07007KT 04/03 A2998 RMK A01 T00430031  RH  092%=      5-min Rain = 0
KOD1 220933Z 07007KT 04/03 A2998 RMK A01 T00440031  RH  092%=      5-min Rain = 0
KOD1 220934Z 06008KT 04/03 A2998 RMK A01 T00440031  RH  092%=      5-min Rain = 0
KOD1 220935Z 07007KT 04/03 A2998 RMK A01 T00440031  RH  092%=      5-min Rain = 0
KOD1 220936Z 06007KT 04/03 A2998 RMK A01 T00440032  RH  092%=      5-min Rain = 0
KOD1 220937Z 07007KT 04/03 A2998 RMK A01 T00440032  RH  092%=      5-min Rain = 0
KOD1 220938Z 07007KT 04/03 A2998 RMK A01 T00440032  RH  092%=      5-min Rain = 0
KOD1 220939Z 07007KT 04/03 A2998 RMK A01 T00440032  RH  092%=      5-min Rain = 0
KOD1 220940Z 07009KT 04/03 A2998 RMK A01 T00440031  RH  092%=      5-min Rain = 0
KOD1 220941Z 07006KT 05/03 A2998 RMK A01 T00450032  RH  091%=      5-min Rain = 0
KOD1 220942Z 07008KT 05/03 A2998 RMK A01 T00450032  RH  092%=      5-min Rain = 0
KOD1 220943Z 07007KT 05/03 A2998 RMK A01 T00450032  RH  091%=      5-min Rain = 0
KOD1 220944Z 07007KT 05/03 A2998 RMK A01 T00450032  RH  091%=      5-min Rain = 0
KOD1 220945Z 07006KT 05/03 A2998 RMK A01 T00450032  RH  091%=      5-min Rain = 0
KOD1 220946Z 07006KT 05/03 A2998 RMK A01 T00450032  RH  091%=      5-min Rain = 0
KOD1 220947Z 07007KT 05/03 A2998 RMK A01 T00450032  RH  091%=      5-min Rain = 0
KOD1 220948Z 07007KT 05/03 A2998 RMK A01 T00450032  RH  091%=      5-min Rain = 0
KOD1 220949Z 07006KT 05/03 A2998 RMK A01 T00450032  RH  091%=      5-min Rain = 0
KOD1 220950Z 07006KT 05/03 A2998 RMK A01 T00450032  RH  091%=      5-min Rain = 0
KOD1 220951Z 07008KT 05/03 A2998 RMK A01 T00450033  RH  091%=      5-min Rain = 0
KOD1 220952Z 07007KT 05/03 A2998 RMK A01 T00460033  RH  091%=      5-min Rain = 0
KOD1 220953Z 07008KT 05/03 A2998 RMK A01 T00460033  RH  091%=      5-min Rain = 0
KOD1 220954Z 07008KT 05/03 A2998 RMK A01 T00450032  RH  091%=      5-min Rain = 0
KOD1 220955Z 07006KT 05/03 A2998 RMK A01 T00460033  RH  091%=      5-min Rain = 0
KOD1 220956Z 07007KT 05/03 A2998 RMK A01 T00450033  RH  091%=      5-min Rain = 0
KOD1 220957Z 07006KT 05/03 A2998 RMK A01 T00450033  RH  091%=      5-min Rain = 0
KOD1 220958Z 07006KT 05/03 A2998 RMK A01 T00460033  RH  091%=      5-min Rain = 0
KOD1 220959Z 07007KT 05/03 A2998 RMK A01 T00460033  RH  091%=      5-min Rain = 0
KOD1 221000Z 08008KT 05/03 A2998 RMK A01 T00460033  RH  091%=      5-min Rain = 0
KOD1 221001Z 07006KT 05/03 A2998 RMK A01 T00460033  RH  091%=      5-min Rain = 0
KOD1 221002Z 08008KT 05/03 A2998 RMK A01 T00460033  RH  091%=      5-min Rain = 0
KOD1 221003Z 08008KT 05/03 A2998 RMK A01 T00460033  RH  091%=      5-min Rain = 0
KOD1 221004Z 07007KT 05/03 A2998 RMK A01 T00460033  RH  091%=      5-min Rain = 0
KOD1 221005Z 08007KT 05/03 A2998 RMK A01 T00460033  RH  091%=      5-min Rain = 0
KOD1 221006Z 08007KT 05/03 A2998 RMK A01 T00460033  RH  091%=      5-min Rain = 0
KOD1 221007Z 07008KT 05/03 A2998 RMK A01 T00460033  RH  091%=      5-min Rain = 0
KOD1 221008Z 08008KT 05/03 A2998 RMK A01 T00460033  RH  091%=      5-min Rain = 0
KOD1 221009Z 07007KT 05/03 A2998 RMK A01 T00460033  RH  091%=      5-min Rain = 0
KOD1 221010Z 07007KT 05/03 A2998 RMK A01 T00460033  RH  091%=      5-min Rain = 0
KOD1 221011Z 08007KT 05/03 A2998 RMK A01 T00460033  RH  091%=      5-min Rain = 0
KOD1 221012Z 07007KT 05/03 A2998 RMK A01 T00460033  RH  091%=      5-min Rain = 0
KOD1 221013Z 07006KT 05/03 A2998 RMK A01 T00460033  RH  091%=      5-min Rain = 0
KOD1 221014Z 07006KT 05/03 A2998 RMK A01 T00460033  RH  091%=      5-min Rain = 0
KOD1 221015Z 08007KT 05/03 A2998 RMK A01 T00460033  RH  091%=      5-min Rain = 0
KOD1 221016Z 07006KT 05/03 A2998 RMK A01 T00460034  RH  092%=      5-min Rain = 0
KOD1 221017Z 07006KT 05/03 A2999 RMK A01 T00460034  RH  092%=      5-min Rain = 0
KOD1 221018Z 08006KT 05/03 A2999 RMK A01 T00460034  RH  092%=      5-min Rain = 0
KOD1 221019Z 08006KT 05/03 A2999 RMK A01 T00460034  RH  092%=      5-min Rain = 0
KOD1 221020Z 07006KT 05/03 A2999 RMK A01 T00460034  RH  092%=      5-min Rain = 0
KOD1 221021Z 08005KT 05/03 A2999 RMK A01 T00460034  RH  092%=      5-min Rain = 0
KOD1 221022Z 07006KT 05/03 A2999 RMK A01 T00460034  RH  092%=      5-min Rain = 0
KOD1 221023Z 06006KT 05/03 A2999 RMK A01 T00460034  RH  092%=      5-min Rain = 0
KOD1 221024Z 06006KT 05/03 A2999 RMK A01 T00460034  RH  092%=      5-min Rain = 0
KOD1 221025Z 07005KT 05/03 A2999 RMK A01 T00460034  RH  092%=      5-min Rain = 0
KOD1 221026Z 07005KT 05/03 A2999 RMK A01 T00460034  RH  092%=      5-min Rain = 0
KOD1 221027Z 07005KT 05/03 A2998 RMK A01 T00460034  RH  092%=      5-min Rain = 0
KOD1 221028Z 07006KT 05/03 A2998 RMK A01 T00450034  RH  092%=      5-min Rain = 0
KOD1 221029Z 07007KT 05/03 A2998 RMK A01 T00450034  RH  092%=      5-min Rain = 0
KOD1 221030Z 07006KT 05/03 A2998 RMK A01 T00450034  RH  092%=      5-min Rain = 0
KOD1 221031Z 07006KT 05/03 A2998 RMK A01 T00450034  RH  093%=      5-min Rain = 0
KOD1 221032Z 07006KT 05/04 A2998 RMK A01 T00450035  RH  093%=      5-min Rain = 0
KOD1 221033Z 07006KT 05/04 A2998 RMK A01 T00450035  RH  093%=      5-min Rain = 0
KOD1 221034Z 07005KT 05/04 A2998 RMK A01 T00450035  RH  093%=      5-min Rain = 0
KOD1 221035Z 07006KT 05/04 A2998 RMK A01 T00450035  RH  093%=      5-min Rain = 0
KOD1 221036Z 07006KT 05/04 A2998 RMK A01 T00450035  RH  093%=      5-min Rain = 0
KOD1 221037Z 07006KT 05/04 A2998 RMK A01 T00450035  RH  094%=      5-min Rain = 0
KOD1 221038Z 06007KT 05/04 A2998 RMK A01 T00450035  RH  094%=      5-min Rain = 0
KOD1 221039Z 06007KT 05/04 A2998 RMK A01 T00450035  RH  094%=      5-min Rain = 0
KOD1 221040Z 07006KT 05/04 A2998 RMK A01 T00450035  RH  094%=      5-min Rain = 0
KOD1 221041Z 07007KT 05/04 A2998 RMK A01 T00450036  RH  094%=      5-min Rain = 0
KOD1 221042Z 07005KT 05/04 A2998 RMK A01 T00450036  RH  094%=      5-min Rain = 0
KOD1 221043Z 08006KT 05/04 A2998 RMK A01 T00450036  RH  094%=      5-min Rain = 0
KOD1 221044Z 07006KT 05/04 A2998 RMK A01 T00450036  RH  094%=      5-min Rain = 0
KOD1 221045Z 07007KT 04/04 A2998 RMK A01 T00440036  RH  094%=      5-min Rain = 0
KOD1 221046Z 07006KT 04/04 A2998 RMK A01 T00440036  RH  094%=      5-min Rain = 0
KOD1 221047Z 07005KT 05/04 A2998 RMK A01 T00450036  RH  094%=      5-min Rain = 0
KOD1 221048Z 07005KT 05/04 A2998 RMK A01 T00450037  RH  095%=      5-min Rain = 0
KOD1 221049Z 06005KT 05/04 A2998 RMK A01 T00450037  RH  095%=      5-min Rain = 0
KOD1 221050Z 06006KT 05/04 A2998 RMK A01 T00450037  RH  095%=      5-min Rain = 0
KOD1 221051Z 07007KT 05/04 A2998 RMK A01 T00450037  RH  095%=      5-min Rain = 0
KOD1 221052Z 07006KT 05/04 A2998 RMK A01 T00450037  RH  095%=      5-min Rain = 0
KOD1 221053Z 07005KT 05/04 A2998 RMK A01 T00450037  RH  095%=      5-min Rain = 0
KOD1 221054Z 06006KT 05/04 A2998 RMK A01 T00450037  RH  095%=      5-min Rain = 0
KOD1 221055Z 06006KT 05/04 A2998 RMK A01 T00450037  RH  095%=      5-min Rain = 0
KOD1 221056Z 07006KT 05/04 A2998 RMK A01 T00450037  RH  095%=      5-min Rain = 0
KOD1 221057Z 06005KT 05/04 A2998 RMK A01 T00450038  RH  095%=      5-min Rain = 0
KOD1 221058Z 07006KT 05/04 A2998 RMK A01 T00450038  RH  095%=      5-min Rain = 0
KOD1 221059Z 07006KT 05/04 A2998 RMK A01 T00450038  RH  095%=      5-min Rain = 0
KOD1 221100Z 06006KT 05/04 A2998 RMK A01 T00450038  RH  095%=      5-min Rain = 0
KOD1 221101Z 06006KT 05/04 A2998 RMK A01 T00450038  RH  095%=      5-min Rain = 0
KOD1 221102Z 06005KT 05/04 A2998 RMK A01 T00450038  RH  096%=      5-min Rain = 0
KOD1 221103Z 07006KT 05/04 A2998 RMK A01 T00450038  RH  096%=      5-min Rain = 0
KOD1 221104Z 06007KT 05/04 A2998 RMK A01 T00450038  RH  096%=      5-min Rain = 0
KOD1 221105Z 06007KT 05/04 A2998 RMK A01 T00450038  RH  096%=      5-min Rain = 0
KOD1 221106Z 06008KT 05/04 A2998 RMK A01 T00450038  RH  096%=      5-min Rain = 0
KOD1 221107Z 06008KT 05/04 A2998 RMK A01 T00450038  RH  096%=      5-min Rain = 0
KOD1 221108Z 07007KT 05/04 A2998 RMK A01 T00450038  RH  096%=      5-min Rain = 0
KOD1 221109Z 06006KT 05/04 A2998 RMK A01 T00450039  RH  096%=      5-min Rain = 0
KOD1 221110Z 07006KT 05/04 A2998 RMK A01 T00450039  RH  096%=      5-min Rain = 0
KOD1 221111Z 06005KT 05/04 A2998 RMK A01 T00450039  RH  096%=      5-min Rain = 0
KOD1 221112Z 06006KT 05/04 A2998 RMK A01 T00450039  RH  096%=      5-min Rain = 0
KOD1 221113Z 06006KT 05/04 A2998 RMK A01 T00450039  RH  096%=      5-min Rain = 0
KOD1 221114Z 06006KT 05/04 A2998 RMK A01 T00450039  RH  096%=      5-min Rain = 0
KOD1 221115Z 06005KT 05/04 A2998 RMK A01 T00450039  RH  096%=      5-min Rain = 0
KOD1 221116Z 07005KT 05/04 A2998 RMK A01 T00450039  RH  096%=      5-min Rain = 0
KOD1 221117Z 07006KT 05/04 A2998 RMK A01 T00450039  RH  096%=      5-min Rain = 0
KOD1 221118Z 06005KT 05/04 A2998 RMK A01 T00450039  RH  096%=      5-min Rain = 0
KOD1 221119Z 06007KT 05/04 A2998 RMK A01 T00450039  RH  096%=      5-min Rain = 0
KOD1 221120Z 06006KT 05/04 A2998 RMK A01 T00450039  RH  096%=      5-min Rain = 0
KOD1 221121Z 06005KT 05/04 A2998 RMK A01 T00450040  RH  096%=      5-min Rain = 0
KOD1 221122Z 06007KT 05/04 A2998 RMK A01 T00450040  RH  096%=      5-min Rain = 0
KOD1 221123Z 07005KT 05/04 A2998 RMK A01 T00450040  RH  096%=      5-min Rain = 0
KOD1 221124Z 06005KT 05/04 A2999 RMK A01 T00450040  RH  096%=      5-min Rain = 0
KOD1 221125Z 06006KT 05/04 A2999 RMK A01 T00450040  RH  096%=      5-min Rain = 0
KOD1 221126Z 07006KT 05/04 A2999 RMK A01 T00450040  RH  096%=      5-min Rain = 0
KOD1 221127Z 06005KT 05/04 A2999 RMK A01 T00450040  RH  096%=      5-min Rain = 0
KOD1 221128Z 06005KT 05/04 A2999 RMK A01 T00450040  RH  096%=      5-min Rain = 0
KOD1 221129Z 07006KT 05/04 A2999 RMK A01 T00450040  RH  096%=      5-min Rain = 0
KOD1 221130Z 06004KT 05/04 A2999 RMK A01 T00450040  RH  097%=      5-min Rain = 0
KOD1 221131Z 07005KT 05/04 A2999 RMK A01 T00460041  RH  097%=      5-min Rain = 0
KOD1 221132Z 07005KT 05/04 A2999 RMK A01 T00460041  RH  097%=      5-min Rain = 0
KOD1 221133Z 06006KT 05/04 A2999 RMK A01 T00460041  RH  097%=      5-min Rain = 0
KOD1 221134Z 06006KT 05/04 A2999 RMK A01 T00460041  RH  097%=      5-min Rain = 0
KOD1 221135Z 07006KT 05/04 A2999 RMK A01 T00460041  RH  097%=      5-min Rain = 0
KOD1 221136Z 06007KT 05/04 A2999 RMK A01 T00460041  RH  097%=      5-min Rain = 0
KOD1 221137Z 06007KT 05/04 A2999 RMK A01 T00460041  RH  097%=      5-min Rain = 0
KOD1 221138Z 06006KT 05/04 A2999 RMK A01 T00460041  RH  097%=      5-min Rain = 0
KOD1 221139Z 06006KT 05/04 A2999 RMK A01 T00460041  RH  097%=      5-min Rain = 0
KOD1 221140Z 07005KT 05/04 A2999 RMK A01 T00460041  RH  097%=      5-min Rain = 0
KOD1 221141Z 06007KT 05/04 A2999 RMK A01 T00460042  RH  097%=      5-min Rain = 0
KOD1 221142Z 07007KT 05/04 A2999 RMK A01 T00460041  RH  097%=      5-min Rain = 0
KOD1 221143Z 07006KT 05/04 A2999 RMK A01 T00460042  RH  097%=      5-min Rain = 0
KOD1 221144Z 07004KT 05/04 A2999 RMK A01 T00460042  RH  097%=      5-min Rain = 0
KOD1 221145Z 07006KT 05/04 A2999 RMK A01 T00460042  RH  097%=      5-min Rain = 0
KOD1 221146Z 07008KT 05/04 A2999 RMK A01 T00470042  RH  097%=      5-min Rain = 0
KOD1 221147Z 07007KT 05/04 A2999 RMK A01 T00470042  RH  097%=      5-min Rain = 0
KOD1 221148Z 07005KT 05/04 A2999 RMK A01 T00470042  RH  097%=      5-min Rain = 0
KOD1 221149Z 07005KT 05/04 A2999 RMK A01 T00470042  RH  097%=      5-min Rain = 0
KOD1 221150Z 07006KT 05/04 A2999 RMK A01 T00470042  RH  097%=      5-min Rain = 0
KOD1 221151Z 07006KT 05/04 A2999 RMK A01 T00470042  RH  097%=      5-min Rain = 0
KOD1 221152Z 07007KT 05/04 A2999 RMK A01 T00470043  RH  097%=      5-min Rain = 0
KOD1 221153Z 07006KT 05/04 A2999 RMK A01 T00470042  RH  097%=      5-min Rain = 0
KOD1 221154Z 07006KT 05/04 A2999 RMK A01 T00470043  RH  097%=      5-min Rain = 0
KOD1 221155Z 07004KT 05/04 A2999 RMK A01 T00470043  RH  097%=      5-min Rain = 0
KOD1 221156Z 07006KT 05/04 A30 RMK A01 T00470043  RH  097%=      5-min Rain = 0
KOD1 221157Z 07005KT 05/04 A30 RMK A01 T00470043  RH  097%=      5-min Rain = 0
KOD1 221158Z 08006KT 05/04 A30 RMK A01 T00470043  RH  097%=      5-min Rain = 0
KOD1 221159Z 07005KT 05/04 A30 RMK A01 T00470043  RH  097%=      5-min Rain = 0
KOD1 221200Z 07005KT 05/04 A30 RMK A01 T00470043  RH  097%=      5-min Rain = 0
KOD1 221201Z 07006KT 05/04 A30 RMK A01 T00470043  RH  097%=      5-min Rain = 0
KOD1 221202Z 07006KT 05/04 A30 RMK A01 T00470043  RH  097%=      5-min Rain = 0
KOD1 221203Z 08006KT 05/04 A30 RMK A01 T00480043  RH  097%=      5-min Rain = 0
KOD1 221204Z 07005KT 05/04 A30 RMK A01 T00470043  RH  097%=      5-min Rain = 0
KOD1 221205Z 07006KT 05/04 A30 RMK A01 T00470043  RH  097%=      5-min Rain = 0
KOD1 221206Z 07006KT 05/04 A30 RMK A01 T00480043  RH  097%=      5-min Rain = 0
KOD1 221207Z 07006KT 05/04 A30 RMK A01 T00470043  RH  097%=      5-min Rain = 0
KOD1 221208Z 07006KT 05/04 A30 RMK A01 T00470043  RH  097%=      5-min Rain = 0
KOD1 221209Z 06006KT 05/04 A30 RMK A01 T00470043  RH  097%=      5-min Rain = 0
KOD1 221210Z 07004KT 05/04 A3001 RMK A01 T00480044  RH  097%=      5-min Rain = 0
KOD1 221211Z 07006KT 05/04 A3001 RMK A01 T00480044  RH  097%=      5-min Rain = 0
KOD1 221212Z 07005KT 05/04 A3001 RMK A01 T00480044  RH  097%=      5-min Rain = 0
KOD1 221213Z 06004KT 05/04 A30 RMK A01 T00480044  RH  097%=      5-min Rain = 0
KOD1 221214Z 06006KT 05/04 A3001 RMK A01 T00480044  RH  097%=      5-min Rain = 0
KOD1 221215Z 07005KT 05/04 A3001 RMK A01 T00480044  RH  097%=      5-min Rain = 0
KOD1 221216Z 07007KT 05/04 A3001 RMK A01 T00480044  RH  097%=      5-min Rain = 0
KOD1 221217Z 07007KT 05/04 A3001 RMK A01 T00480044  RH  097%=      5-min Rain = 0
KOD1 221218Z 07006KT 05/04 A3001 RMK A01 T00480044  RH  097%=      5-min Rain = 0
KOD1 221219Z 08007KT 05/04 A3001 RMK A01 T00480044  RH  097%=      5-min Rain = 0
KOD1 221220Z 08007KT 05/04 A3001 RMK A01 T00480044  RH  097%=      5-min Rain = 0
KOD1 221221Z 08007KT 05/05 A3002 RMK A01 T00490045  RH  097%=      5-min Rain = 0
KOD1 221222Z 08006KT 05/05 A3002 RMK A01 T00490045  RH  097%=      5-min Rain = 0
KOD1 221223Z 08005KT 05/05 A3002 RMK A01 T00490045  RH  097%=      5-min Rain = 0
KOD1 221224Z 08005KT 05/05 A3002 RMK A01 T00490045  RH  097%=      5-min Rain = 0
KOD1 221225Z 08006KT 05/05 A3002 RMK A01 T00490045  RH  097%=      5-min Rain = 0
KOD1 221226Z 09007KT 05/05 A3002 RMK A01 T00490045  RH  097%=      5-min Rain = 0
KOD1 221227Z 08006KT 05/05 A3002 RMK A01 T00490045  RH  097%=      5-min Rain = 0
KOD1 221228Z 08005KT 05/05 A3002 RMK A01 T00490045  RH  097%=      5-min Rain = 0
KOD1 221229Z 06004KT 05/05 A3002 RMK A01 T00490045  RH  097%=      5-min Rain = 0
KOD1 221230Z 08006KT 05/05 A3002 RMK A01 T00490045  RH  097%=      5-min Rain = 0
KOD1 221231Z 08005KT 05/05 A3002 RMK A01 T00490045  RH  097%=      5-min Rain = 0
KOD1 221232Z 08004KT 05/05 A3002 RMK A01 T00490045  RH  097%=      5-min Rain = 0
KOD1 221233Z 08006KT 05/05 A3002 RMK A01 T00490045  RH  097%=      5-min Rain = 0
KOD1 221234Z 08006KT 05/05 A3002 RMK A01 T00490045  RH  097%=      5-min Rain = 0
KOD1 221235Z 08005KT 05/05 A3002 RMK A01 T00490045  RH  097%=      5-min Rain = 0
KOD1 221236Z 08006KT 05/05 A3002 RMK A01 T00490045  RH  097%=      5-min Rain = 0
KOD1 221237Z 09006KT 05/05 A3002 RMK A01 T00490045  RH  097%=      5-min Rain = 0
KOD1 221238Z 07005KT 05/05 A3002 RMK A01 T00490045  RH  097%=      5-min Rain = 0
KOD1 221239Z 08006KT 05/05 A3002 RMK A01 T00490045  RH  097%=      5-min Rain = 0
KOD1 221240Z 08005KT 05/05 A3002 RMK A01 T00490045  RH  097%=      5-min Rain = 0
KOD1 221241Z 08005KT 05/05 A3002 RMK A01 T00500045  RH  097%=      5-min Rain = 0
KOD1 221242Z 08006KT 05/05 A3002 RMK A01 T00490045  RH  097%=      5-min Rain = 0
KOD1 221243Z 08005KT 05/05 A3002 RMK A01 T00490045  RH  097%=      5-min Rain = 0
KOD1 221244Z 08005KT 05/05 A3002 RMK A01 T00490045  RH  097%=      5-min Rain = 0
KOD1 221245Z 08005KT 05/05 A3002 RMK A01 T00490045  RH  097%=      5-min Rain = 0
KOD1 221246Z 09006KT 05/05 A3003 RMK A01 T00490045  RH  097%=      5-min Rain = 0
KOD1 221247Z 07005KT 05/05 A3003 RMK A01 T00490045  RH  097%=      5-min Rain = 0
KOD1 221248Z 08006KT 05/05 A3002 RMK A01 T00490045  RH  097%=      5-min Rain = 0
KOD1 221249Z 07005KT 05/05 A3002 RMK A01 T00500046  RH  097%=      5-min Rain = 0
KOD1 221250Z 08006KT 05/05 A3002 RMK A01 T00490045  RH  097%=      5-min Rain = 0
KOD1 221251Z 08006KT 05/05 A3002 RMK A01 T00490045  RH  097%=      5-min Rain = 0
KOD1 221252Z 08006KT 05/05 A3002 RMK A01 T00500046  RH  097%=      5-min Rain = 0
KOD1 221253Z 07005KT 05/05 A3002 RMK A01 T00500046  RH  097%=      5-min Rain = 0.01
KOD1 221254Z 07006KT 05/05 A3002 RMK A01 T00490045  RH  097%=      5-min Rain = 0
KOD1 221255Z 08006KT 05/05 A3002 RMK A01 T00500046  RH  097%=      5-min Rain = 0
KOD1 221256Z 08006KT 05/05 A3002 RMK A01 T00490046  RH  097%=      5-min Rain = 0
KOD1 221257Z 09007KT 05/05 A3002 RMK A01 T00490046  RH  097%=      5-min Rain = 0
KOD1 221258Z 07006KT 05/05 A3002 RMK A01 T00500046  RH  097%=      5-min Rain = 0
KOD1 221259Z 08007KT 05/05 A3002 RMK A01 T00490045  RH  097%=      5-min Rain = 0
KOD1 221300Z 08006KT 05/05 A3002 RMK A01 T00490046  RH  097%=      5-min Rain = 0
KOD1 221301Z 08006KT 05/05 A3002 RMK A01 T00490046  RH  097%=      5-min Rain = 0
KOD1 221302Z 08006KT 05/05 A3002 RMK A01 T00500046  RH  097%=      5-min Rain = 0
KOD1 221303Z 08005KT 05/05 A3002 RMK A01 T00490045  RH  097%=      5-min Rain = 0
KOD1 221304Z 08005KT 05/05 A3002 RMK A01 T00490046  RH  097%=      5-min Rain = 0
KOD1 221305Z 09006KT 05/05 A3002 RMK A01 T00500046  RH  097%=      5-min Rain = 0.01
KOD1 221306Z 08006KT 05/05 A3002 RMK A01 T00490046  RH  097%=      5-min Rain = 0
KOD1 221307Z 09007KT 05/05 A3002 RMK A01 T00500046  RH  097%=      5-min Rain = 0
KOD1 221308Z 09007KT 05/05 A3002 RMK A01 T00490046  RH  097%=      5-min Rain = 0
KOD1 221309Z 09006KT 05/05 A3002 RMK A01 T00490046  RH  097%=      5-min Rain = 0
KOD1 221310Z 09007KT 05/05 A3002 RMK A01 T00500046  RH  097%=      5-min Rain = 0
KOD1 221311Z 08007KT 05/05 A3003 RMK A01 T00490046  RH  097%=      5-min Rain = 0
KOD1 221312Z 09006KT 05/05 A3003 RMK A01 T00490046  RH  097%=      5-min Rain = 0
KOD1 221313Z 09006KT 05/05 A3003 RMK A01 T00500046  RH  097%=      5-min Rain = 0
KOD1 221314Z 09006KT 05/05 A3003 RMK A01 T00500046  RH  097%=      5-min Rain = 0
KOD1 221315Z 09005KT 05/05 A3003 RMK A01 T00500046  RH  097%=      5-min Rain = 0
KOD1 221316Z 09005KT 05/05 A3003 RMK A01 T00500046  RH  097%=      5-min Rain = 0
KOD1 221317Z 09006KT 05/05 A3003 RMK A01 T00500046  RH  097%=      5-min Rain = 0
KOD1 221318Z 09005KT 05/05 A3003 RMK A01 T00500046  RH  097%=      5-min Rain = 0
KOD1 221319Z 09006KT 05/05 A3003 RMK A01 T00500046  RH  097%=      5-min Rain = 0
KOD1 221320Z 09006KT 05/05 A3003 RMK A01 T00500046  RH  097%=      5-min Rain = 0
KOD1 221321Z 09006KT 05/05 A3003 RMK A01 T00500046  RH  097%=      5-min Rain = 0
KOD1 221322Z 10005KT 05/05 A3003 RMK A01 T00500046  RH  097%=      5-min Rain = 0
KOD1 221323Z 09005KT 05/05 A3003 RMK A01 T00500046  RH  097%=      5-min Rain = 0
KOD1 221324Z 09005KT 05/05 A3003 RMK A01 T00500046  RH  097%=      5-min Rain = 0
KOD1 221325Z 10006KT 05/05 A3003 RMK A01 T00500046  RH  097%=      5-min Rain = 0
KOD1 221326Z 10007KT 05/05 A3003 RMK A01 T00500046  RH  097%=      5-min Rain = 0
KOD1 221327Z 08006KT 05/05 A3003 RMK A01 T00500046  RH  097%=      5-min Rain = 0
KOD1 221328Z 10006KT 05/05 A3003 RMK A01 T00500046  RH  097%=      5-min Rain = 0
KOD1 221329Z 10006KT 05/05 A3003 RMK A01 T00500046  RH  097%=      5-min Rain = 0
KOD1 221330Z 10006KT 05/05 A3003 RMK A01 T00500046  RH  097%=      5-min Rain = 0
KOD1 221331Z 10006KT 05/05 A3003 RMK A01 T00500046  RH  097%=      5-min Rain = 0
KOD1 221332Z 11005KT 05/05 A3003 RMK A01 T00500046  RH  097%=      5-min Rain = 0
KOD1 221333Z 11006KT 05/05 A3003 RMK A01 T00500047  RH  097%=      5-min Rain = 0
KOD1 221334Z 11007KT 05/05 A3003 RMK A01 T00500046  RH  097%=      5-min Rain = 0
KOD1 221335Z 10006KT 05/05 A3003 RMK A01 T00500046  RH  097%=      5-min Rain = 0
KOD1 221336Z 11005KT 05/05 A3003 RMK A01 T00500046  RH  097%=      5-min Rain = 0
KOD1 221337Z 10005KT 05/05 A3003 RMK A01 T00500046  RH  097%=      5-min Rain = 0
KOD1 221338Z 09004KT 05/05 A3003 RMK A01 T00510047  RH  097%=      5-min Rain = 0
KOD1 221339Z 09004KT 05/05 A3003 RMK A01 T00510047  RH  097%=      5-min Rain = 0
KOD1 221340Z 08005KT 05/05 A3003 RMK A01 T00510047  RH  097%=      5-min Rain = 0
KOD1 221341Z 09005KT 05/05 A3003 RMK A01 T00510047  RH  097%=      5-min Rain = 0
KOD1 221342Z 09006KT 05/05 A3004 RMK A01 T00500046  RH  097%=      5-min Rain = 0
KOD1 221343Z 09005KT 05/05 A3004 RMK A01 T00500047  RH  097%=      5-min Rain = 0
KOD1 221344Z 10005KT 05/05 A3004 RMK A01 T00510047  RH  097%=      5-min Rain = 0
KOD1 221345Z 10005KT 05/05 A3004 RMK A01 T00510047  RH  097%=      5-min Rain = 0
KOD1 221346Z 10005KT 05/05 A3004 RMK A01 T00510047  RH  097%=      5-min Rain = 0
KOD1 221347Z 11006KT 05/05 A3004 RMK A01 T00510047  RH  097%=      5-min Rain = 0
KOD1 221348Z 10007KT 05/05 A3004 RMK A01 T00510047  RH  097%=      5-min Rain = 0
KOD1 221349Z 09006KT 05/05 A3004 RMK A01 T00510047  RH  097%=      5-min Rain = 0
KOD1 221350Z 09005KT 05/05 A3004 RMK A01 T00510047  RH  097%=      5-min Rain = 0
KOD1 221351Z 09007KT 05/05 A3004 RMK A01 T00510047  RH  097%=      5-min Rain = 0
KOD1 221352Z 10006KT 05/05 A3004 RMK A01 T00510047  RH  097%=      5-min Rain = 0
KOD1 221353Z 09005KT 05/05 A3004 RMK A01 T00510047  RH  098%=      5-min Rain = 0
KOD1 221354Z 09007KT 05/05 A3004 RMK A01 T00510047  RH  098%=      5-min Rain = 0
KOD1 221355Z 09007KT 05/05 A3003 RMK A01 T00510047  RH  097%=      5-min Rain = 0
KOD1 221356Z 08007KT 05/05 A3003 RMK A01 T00510047  RH  098%=      5-min Rain = 0
KOD1 221357Z 08007KT 05/05 A3003 RMK A01 T00510048  RH  098%=      5-min Rain = 0
KOD1 221358Z 07006KT 05/05 A3003 RMK A01 T00510048  RH  098%=      5-min Rain = 0
KOD1 221359Z 08006KT 05/05 A3003 RMK A01 T00510048  RH  097%=      5-min Rain = 0
KOD1 221400Z 08005KT 05/05 A3003 RMK A01 T00510048  RH  098%=      5-min Rain = 0
KOD1 221401Z 07005KT 05/05 A3003 RMK A01 T00510048  RH  098%=      5-min Rain = 0
KOD1 221402Z 07006KT 05/05 A3003 RMK A01 T00510048  RH  098%=      5-min Rain = 0
KOD1 221403Z 09008KT 05/05 A3003 RMK A01 T00510048  RH  097%=      5-min Rain = 0
KOD1 221404Z 08006KT 05/05 A3003 RMK A01 T00510048  RH  098%=      5-min Rain = 0
KOD1 221405Z 08007KT 05/05 A3003 RMK A01 T00520048  RH  098%=      5-min Rain = 0
KOD1 221406Z 08005KT 05/05 A3003 RMK A01 T00520048  RH  098%=      5-min Rain = 0
KOD1 221407Z 07004KT 05/05 A3003 RMK A01 T00520049  RH  098%=      5-min Rain = 0
KOD1 221408Z 08007KT 05/05 A3003 RMK A01 T00520049  RH  098%=      5-min Rain = 0
KOD1 221409Z 08007KT 05/05 A3003 RMK A01 T00520048  RH  097%=      5-min Rain = 0
KOD1 221410Z 07005KT 05/05 A3003 RMK A01 T00520049  RH  098%=      5-min Rain = 0
KOD1 221411Z 07005KT 05/05 A3003 RMK A01 T00520049  RH  098%=      5-min Rain = 0
KOD1 221412Z 08006KT 05/05 A3003 RMK A01 T00520049  RH  098%=      5-min Rain = 0
KOD1 221413Z 09006KT 05/05 A3003 RMK A01 T00530049  RH  098%=      5-min Rain = 0
KOD1 221414Z 09007KT 05/05 A3003 RMK A01 T00530049  RH  098%=      5-min Rain = 0
KOD1 221415Z 09007KT 05/05 A3003 RMK A01 T00530049  RH  097%=      5-min Rain = 0
KOD1 221416Z 08008KT 05/05 A3003 RMK A01 T00530049  RH  097%=      5-min Rain = 0
KOD1 221417Z 09008KT 05/05 A3003 RMK A01 T00530049  RH  097%=      5-min Rain = 0
KOD1 221418Z 09008KT 05/05 A3003 RMK A01 T00530049  RH  097%=      5-min Rain = 0
KOD1 221419Z 10008KT 05/05 A3003 RMK A01 T00530049  RH  097%=      5-min Rain = 0
KOD1 221420Z 09007KT 05/05 A3003 RMK A01 T00530049  RH  097%=      5-min Rain = 0
KOD1 221421Z 10006KT 05/05 A3003 RMK A01 T00530050  RH  097%=      5-min Rain = 0
KOD1 221422Z 10007KT 05/05 A3003 RMK A01 T00540050  RH  097%=      5-min Rain = 0
KOD1 221423Z 09007KT 05/05 A3003 RMK A01 T00540049  RH  097%=      5-min Rain = 0
KOD1 221424Z 09006KT 05/05 A3003 RMK A01 T00540049  RH  097%=      5-min Rain = 0
KOD1 221425Z 09007KT 05/05 A3003 RMK A01 T00540050  RH  097%=      5-min Rain = 0
KOD1 221426Z 08007KT 05/05 A3003 RMK A01 T00540049  RH  097%=      5-min Rain = 0
KOD1 221427Z 08006KT 05/05 A3003 RMK A01 T00540049  RH  097%=      5-min Rain = 0
KOD1 221428Z 08008KT 05/05 A3003 RMK A01 T00540049  RH  097%=      5-min Rain = 0
KOD1 221429Z 08008KT 05/05 A3003 RMK A01 T00540049  RH  097%=      5-min Rain = 0
KOD1 221430Z 08007KT 05/05 A3003 RMK A01 T00540050  RH  097%=      5-min Rain = 0
KOD1 221431Z 08006KT 05/05 A3003 RMK A01 T00540050  RH  097%=      5-min Rain = 0
KOD1 221432Z 07006KT 06/05 A3003 RMK A01 T00550050  RH  097%=      5-min Rain = 0
KOD1 221433Z 08007KT 06/05 A3003 RMK A01 T00550050  RH  097%=      5-min Rain = 0
KOD1 221434Z 08009KT 06/05 A3003 RMK A01 T00550050  RH  097%=      5-min Rain = 0
KOD1 221435Z 08009KT 06/05 A3003 RMK A01 T00550050  RH  097%=      5-min Rain = 0
KOD1 221436Z 08008KT 06/05 A3003 RMK A01 T00550050  RH  097%=      5-min Rain = 0
KOD1 221437Z 08006KT 06/05 A3003 RMK A01 T00550050  RH  097%=      5-min Rain = 0
KOD1 221438Z 08007KT 06/05 A3003 RMK A01 T00560051  RH  097%=      5-min Rain = 0
KOD1 221439Z 08007KT 06/05 A3003 RMK A01 T00560051  RH  097%=      5-min Rain = 0
KOD1 221440Z 08009KT 06/05 A3003 RMK A01 T00560051  RH  096%=      5-min Rain = 0
KOD1 221441Z 08008KT 06/05 A3003 RMK A01 T00560051  RH  096%=      5-min Rain = 0
KOD1 221442Z 08008KT 06/05 A3003 RMK A01 T00560051  RH  096%=      5-min Rain = 0
KOD1 221443Z 09008KT 06/05 A3003 RMK A01 T00560051  RH  096%=      5-min Rain = 0
KOD1 221444Z 09008KT 06/05 A3003 RMK A01 T00560051  RH  096%=      5-min Rain = 0
KOD1 221445Z 09008KT 06/05 A3003 RMK A01 T00570052  RH  097%=      5-min Rain = 0
KOD1 221446Z 09009KT 06/05 A3003 RMK A01 T00580053  RH  096%=      5-min Rain = 0
KOD1 221447Z 09009KT 06/05 A3003 RMK A01 T00580052  RH  096%=      5-min Rain = 0
KOD1 221448Z 09009KT 06/05 A3003 RMK A01 T00580052  RH  096%=      5-min Rain = 0
KOD1 221449Z 10010KT 06/05 A3003 RMK A01 T00580052  RH  096%=      5-min Rain = 0
KOD1 221450Z 09009KT 06/05 A3003 RMK A01 T00580052  RH  096%=      5-min Rain = 0
KOD1 221451Z 09010KT 06/05 A3004 RMK A01 T00580051  RH  096%=      5-min Rain = 0
KOD1 221452Z 10009KT 06/05 A3004 RMK A01 T00580052  RH  096%=      5-min Rain = 0
KOD1 221453Z 09007KT 06/05 A3004 RMK A01 T00580051  RH  096%=      5-min Rain = 0
KOD1 221454Z 09010KT 06/05 A3004 RMK A01 T00580051  RH  095%=      5-min Rain = 0
KOD1 221455Z 09008KT 06/05 A3003 RMK A01 T00580051  RH  095%=      5-min Rain = 0
KOD1 221456Z 08009KT 06/05 A3003 RMK A01 T00590052  RH  095%=      5-min Rain = 0
KOD1 221457Z 09010KT 06/05 A3003 RMK A01 T00590051  RH  095%=      5-min Rain = 0
KOD1 221458Z 09009KT 06/05 A3003 RMK A01 T00590051  RH  095%=      5-min Rain = 0
KOD1 221459Z 09009KT 06/05 A3003 RMK A01 T00590050  RH  094%=      5-min Rain = 0
KOD1 221500Z 07008KT 06/05 A3003 RMK A01 T00600053  RH  095%=      5-min Rain = 0
KOD1 221501Z 08009KT 06/05 A3003 RMK A01 T00600053  RH  095%=      5-min Rain = 0
KOD1 221502Z 07010KT 06/05 A3003 RMK A01 T00590051  RH  094%=      5-min Rain = 0
KOD1 221503Z 07008KT 06/05 A3002 RMK A01 T00590051  RH  094%=      5-min Rain = 0
KOD1 221504Z 07009KT 06/05 A3002 RMK A01 T00600052  RH  095%=      5-min Rain = 0
KOD1 221505Z 08011KT 06/05 A3003 RMK A01 T00600053  RH  095%=      5-min Rain = 0
KOD1 221506Z 08011KT 06/05 A3003 RMK A01 T00600052  RH  095%=      5-min Rain = 0
KOD1 221507Z 09012KT 06/05 A3003 RMK A01 T00590051  RH  094%=      5-min Rain = 0
KOD1 221508Z 08012KT 06/05 A3003 RMK A01 T00590050  RH  094%=      5-min Rain = 0
KOD1 221509Z 08012KT 06/05 A3003 RMK A01 T00590051  RH  094%=      5-min Rain = 0
KOD1 221510Z 09010KT 06/05 A3003 RMK A01 T00590051  RH  095%=      5-min Rain = 0
KOD1 221511Z 08010KT 06/05 A3003 RMK A01 T00590051  RH  094%=      5-min Rain = 0
KOD1 221512Z 09012KT 06/05 A3003 RMK A01 T00590051  RH  095%=      5-min Rain = 0
KOD1 221513Z 09011KT 06/05 A3003 RMK A01 T00590051  RH  094%=      5-min Rain = 0
KOD1 221514Z 09011KT 06/05 A3003 RMK A01 T00600052  RH  094%=      5-min Rain = 0
KOD1 221515Z 09011KT 06/05 A3003 RMK A01 T00600052  RH  094%=      5-min Rain = 0
KOD1 221516Z 09012KT 06/05 A3003 RMK A01 T00610053  RH  095%=      5-min Rain = 0
KOD1 221517Z 09012KT 06/05 A3003 RMK A01 T00610052  RH  094%=      5-min Rain = 0
KOD1 221518Z 10010KT 06/05 A3003 RMK A01 T00610051  RH  094%=      5-min Rain = 0
KOD1 221519Z 10011KT 06/05 A3003 RMK A01 T00610052  RH  094%=      5-min Rain = 0
KOD1 221520Z 10010KT 06/05 A3003 RMK A01 T00610052  RH  094%=      5-min Rain = 0
KOD1 221521Z 09009KT 06/05 A3003 RMK A01 T00610052  RH  094%=      5-min Rain = 0
KOD1 221522Z 08009KT 06/06 A3003 RMK A01 T00620055  RH  095%=      5-min Rain = 0
KOD1 221523Z 09013KT 06/05 A3003 RMK A01 T00620053  RH  094%=      5-min Rain = 0
KOD1 221524Z 09011KT 06/05 A3003 RMK A01 T00610052  RH  094%=      5-min Rain = 0
KOD1 221525Z 09012KT 06/05 A3003 RMK A01 T00610052  RH  094%=      5-min Rain = 0
KOD1 221526Z 09011KT 06/05 A3003 RMK A01 T00600051  RH  094%=      5-min Rain = 0
KOD1 221527Z 10008KT 06/05 A3003 RMK A01 T00610053  RH  095%=      5-min Rain = 0
KOD1 221528Z 11010KT 06/05 A3004 RMK A01 T00610054  RH  095%=      5-min Rain = 0
KOD1 221529Z 11012KT 06/05 A3004 RMK A01 T00610052  RH  094%=      5-min Rain = 0
KOD1 221530Z 11012KT 06/05 A3004 RMK A01 T00610052  RH  094%=      5-min Rain = 0
KOD1 221531Z 10011KT 06/05 A3004 RMK A01 T00610051  RH  094%=      5-min Rain = 0
KOD1 221532Z 10012KT 06/05 A3003 RMK A01 T00600051  RH  094%=      5-min Rain = 0
KOD1 221533Z 10011KT 06/05 A3003 RMK A01 T00600050  RH  093%=      5-min Rain = 0
KOD1 221534Z 10010KT 06/05 A3003 RMK A01 T00600050  RH  093%=      5-min Rain = 0
KOD1 221535Z 09010KT 06/05 A3003 RMK A01 T00600051  RH  094%=      5-min Rain = 0
KOD1 221536Z 10011KT 06/05 A3003 RMK A01 T00600051  RH  094%=      5-min Rain = 0
KOD1 221537Z 10010KT 06/05 A3003 RMK A01 T00600051  RH  094%=      5-min Rain = 0
KOD1 221538Z 10010KT 06/05 A3003 RMK A01 T00600051  RH  094%=      5-min Rain = 0
KOD1 221539Z 10010KT 06/05 A3003 RMK A01 T00600052  RH  095%=      5-min Rain = 0
KOD1 221540Z 10011KT 06/05 A3003 RMK A01 T00600052  RH  094%=      5-min Rain = 0
KOD1 221541Z 10011KT 06/05 A3003 RMK A01 T00600050  RH  094%=      5-min Rain = 0
KOD1 221542Z 09011KT 06/05 A3003 RMK A01 T00610052  RH  095%=      5-min Rain = 0
KOD1 221543Z 10011KT 06/05 A3003 RMK A01 T00610053  RH  094%=      5-min Rain = 0
KOD1 221544Z 09011KT 06/05 A3003 RMK A01 T00610052  RH  094%=      5-min Rain = 0
KOD1 221545Z 10009KT 06/05 A3003 RMK A01 T00620052  RH  094%=      5-min Rain = 0
KOD1 221546Z 10010KT 06/05 A3003 RMK A01 T00630054  RH  094%=      5-min Rain = 0
KOD1 221547Z 10009KT 06/05 A3003 RMK A01 T00630053  RH  094%=      5-min Rain = 0
KOD1 221548Z 10011KT 06/05 A3003 RMK A01 T00630053  RH  093%=      5-min Rain = 0
KOD1 221549Z 10011KT 06/05 A3003 RMK A01 T00620052  RH  093%=      5-min Rain = 0
KOD1 221550Z 10009G14KT 06/06 A3003 RMK A01 T00630055  RH  095%=      5-min Rain = 0
KOD1 221551Z 10010KT 06/06 A3003 RMK A01 T00630055  RH  095%=      5-min Rain = 0
KOD1 221552Z 10011KT 06/06 A3003 RMK A01 T00630055  RH  094%=      5-min Rain = 0
KOD1 221553Z 09010KT 06/05 A3003 RMK A01 T00630054  RH  094%=      5-min Rain = 0
KOD1 221554Z 10009KT 06/05 A3003 RMK A01 T00630054  RH  094%=      5-min Rain = 0
KOD1 221555Z 09012KT 06/05 A3003 RMK A01 T00630054  RH  094%=      5-min Rain = 0
KOD1 221556Z 09010KT 06/05 A3003 RMK A01 T00630053  RH  094%=      5-min Rain = 0
KOD1 221557Z 09009KT 06/06 A3003 RMK A01 T00630055  RH  094%=      5-min Rain = 0
KOD1 221558Z 09010KT 06/05 A3003 RMK A01 T00630054  RH  094%=      5-min Rain = 0
KOD1 221559Z 10011KT 06/05 A3003 RMK A01 T00630053  RH  093%=      5-min Rain = 0
KOD1 221600Z 09011KT 06/05 A3003 RMK A01 T00620053  RH  094%=      5-min Rain = 0
KOD1 221601Z 09010KT 06/05 A3003 RMK A01 T00620052  RH  093%=      5-min Rain = 0
KOD1 221602Z 11011KT 06/05 A3003 RMK A01 T00630054  RH  094%=      5-min Rain = 0
KOD1 221603Z 10011KT 06/05 A3003 RMK A01 T00630053  RH  093%=      5-min Rain = 0
KOD1 221604Z 10012KT 06/05 A3003 RMK A01 T00630052  RH  093%=      5-min Rain = 0
KOD1 221605Z 10011KT 06/05 A3003 RMK A01 T00620051  RH  093%=      5-min Rain = 0
KOD1 221606Z 11011KT 06/05 A3003 RMK A01 T00620052  RH  093%=      5-min Rain = 0
KOD1 221607Z 11011KT 06/05 A3003 RMK A01 T00620053  RH  093%=      5-min Rain = 0
KOD1 221608Z 09010KT 06/05 A3003 RMK A01 T00620052  RH  093%=      5-min Rain = 0
KOD1 221609Z 10010KT 06/05 A3003 RMK A01 T00620052  RH  093%=      5-min Rain = 0
KOD1 221610Z 10010KT 06/05 A3003 RMK A01 T00630054  RH  094%=      5-min Rain = 0
KOD1 221611Z 10011KT 06/05 A3003 RMK A01 T00630053  RH  093%=      5-min Rain = 0
KOD1 221612Z 10010KT 06/05 A3003 RMK A01 T00630052  RH  093%=      5-min Rain = 0
KOD1 221613Z 10010KT 06/05 A3003 RMK A01 T00630054  RH  094%=      5-min Rain = 0
KOD1 221614Z 11010KT 06/05 A3003 RMK A01 T00630054  RH  094%=      5-min Rain = 0
KOD1 221615Z 11010KT 06/05 A3003 RMK A01 T00630053  RH  094%=      5-min Rain = 0
KOD1 221616Z 10007KT 06/06 A3003 RMK A01 T00640055  RH  094%=      5-min Rain = 0
KOD1 221617Z 10009KT 06/06 A3003 RMK A01 T00640056  RH  094%=      5-min Rain = 0
KOD1 221618Z 09010KT 06/05 A3003 RMK A01 T00640054  RH  094%=      5-min Rain = 0
KOD1 221619Z 09011KT 06/05 A3003 RMK A01 T00630053  RH  093%=      5-min Rain = 0
KOD1 221620Z 09010KT 06/05 A3003 RMK A01 T00630054  RH  094%=      5-min Rain = 0
KOD1 221621Z 10010KT 06/06 A3002 RMK A01 T00630055  RH  094%=      5-min Rain = 0
KOD1 221622Z 10009KT 06/06 A3002 RMK A01 T00630055  RH  094%=      5-min Rain = 0
KOD1 221623Z 11010KT 06/05 A3002 RMK A01 T00630054  RH  094%=      5-min Rain = 0
KOD1 221624Z 10011KT 06/05 A3002 RMK A01 T00630054  RH  094%=      5-min Rain = 0
KOD1 221625Z 11010KT 06/06 A3002 RMK A01 T00630055  RH  094%=      5-min Rain = 0
KOD1 221626Z 10010KT 06/06 A3002 RMK A01 T00640056  RH  095%=      5-min Rain = 0
KOD1 221627Z 10010KT 06/06 A3002 RMK A01 T00640056  RH  095%=      5-min Rain = 0
KOD1 221628Z 11011KT 06/06 A3002 RMK A01 T00640056  RH  094%=      5-min Rain = 0
KOD1 221629Z 10011KT 06/06 A3002 RMK A01 T00630055  RH  094%=      5-min Rain = 0
KOD1 221630Z 10011KT 06/06 A3002 RMK A01 T00630055  RH  094%=      5-min Rain = 0
KOD1 221631Z 11012KT 06/06 A3002 RMK A01 T00640055  RH  094%=      5-min Rain = 0
KOD1 221632Z 10011KT 06/06 A3002 RMK A01 T00640055  RH  094%=      5-min Rain = 0
KOD1 221633Z 10011KT 06/06 A3002 RMK A01 T00640055  RH  094%=      5-min Rain = 0
KOD1 221634Z 10011KT 06/06 A3002 RMK A01 T00640055  RH  094%=      5-min Rain = 0
KOD1 221635Z 09011KT 06/06 A3002 RMK A01 T00640055  RH  094%=      5-min Rain = 0.01
KOD1 221636Z 10009KT 06/06 A3002 RMK A01 T00640056  RH  094%=      5-min Rain = 0
KOD1 221637Z 10010KT 07/06 A3002 RMK A01 T00650057  RH  095%=      5-min Rain = 0
KOD1 221638Z 10011KT 07/06 A3001 RMK A01 T00650056  RH  094%=      5-min Rain = 0
KOD1 221639Z 10011KT 07/06 A3002 RMK A01 T00650056  RH  094%=      5-min Rain = 0
KOD1 221640Z 10010KT 07/06 A3002 RMK A01 T00650056  RH  094%=      5-min Rain = 0
KOD1 221641Z 11010KT 07/06 A3002 RMK A01 T00650056  RH  094%=      5-min Rain = 0
KOD1 221642Z 10010KT 07/06 A3002 RMK A01 T00650055  RH  094%=      5-min Rain = 0
KOD1 221643Z 10010KT 07/06 A3002 RMK A01 T00650056  RH  094%=      5-min Rain = 0
KOD1 221644Z 10010KT 07/06 A3002 RMK A01 T00650056  RH  094%=      5-min Rain = 0
KOD1 221645Z 10009KT 07/06 A3002 RMK A01 T00650056  RH  094%=      5-min Rain = 0
KOD1 221646Z 10011KT 07/06 A3002 RMK A01 T00650057  RH  094%=      5-min Rain = 0
KOD1 221647Z 11011KT 06/06 A3002 RMK A01 T00640055  RH  094%=      5-min Rain = 0
KOD1 221648Z 11010KT 06/06 A3002 RMK A01 T00640055  RH  094%=      5-min Rain = 0
KOD1 221649Z 10011KT 06/06 A3002 RMK A01 T00640056  RH  094%=      5-min Rain = 0
KOD1 221650Z 10010KT 07/06 A3001 RMK A01 T00650056  RH  094%=      5-min Rain = 0
KOD1 221651Z 10011KT 07/06 A3001 RMK A01 T00650057  RH  095%=      5-min Rain = 0
KOD1 221652Z 10012KT 07/06 A3001 RMK A01 T00650056  RH  094%=      5-min Rain = 0
KOD1 221653Z 09011KT 07/06 A3001 RMK A01 T00650056  RH  094%=      5-min Rain = 0
KOD1 221654Z 09009KT 07/06 A3001 RMK A01 T00650058  RH  095%=      5-min Rain = 0
KOD1 221655Z 10009KT 07/06 A3001 RMK A01 T00660059  RH  095%=      5-min Rain = 0
KOD1 221656Z 10010KT 07/06 A3001 RMK A01 T00670059  RH  095%=      5-min Rain = 0
KOD1 221657Z 10010KT 07/06 A3001 RMK A01 T00660057  RH  094%=      5-min Rain = 0
KOD1 221658Z 11011KT 07/06 A3001 RMK A01 T00660058  RH  095%=      5-min Rain = 0
KOD1 221659Z 10010KT 07/06 A3001 RMK A01 T00650057  RH  094%=      5-min Rain = 0
KOD1 221700Z 09010KT 07/06 A3001 RMK A01 T00650057  RH  094%=      5-min Rain = 0
KOD1 221701Z 11008KT 07/06 A30 RMK A01 T00660059  RH  095%=      5-min Rain = 0
KOD1 221702Z 11010KT 07/06 A30 RMK A01 T00670060  RH  095%=      5-min Rain = 0
KOD1 221703Z 11009KT 07/06 A30 RMK A01 T00670059  RH  095%=      5-min Rain = 0
KOD1 221704Z 10012KT 07/06 A30 RMK A01 T00670060  RH  095%=      5-min Rain = 0
KOD1 221705Z 10012KT 07/06 A30 RMK A01 T00660057  RH  094%=      5-min Rain = 0
KOD1 221706Z 10011KT 07/06 A30 RMK A01 T00650057  RH  094%=      5-min Rain = 0
KOD1 221707Z 09011KT 07/06 A30 RMK A01 T00650058  RH  095%=      5-min Rain = 0
KOD1 221708Z 09009KT 07/06 A30 RMK A01 T00660058  RH  095%=      5-min Rain = 0
KOD1 221709Z 10010KT 07/06 A30 RMK A01 T00660058  RH  095%=      5-min Rain = 0
KOD1 221710Z 10010KT 07/06 A30 RMK A01 T00660058  RH  094%=      5-min Rain = 0
KOD1 221711Z 10009KT 07/06 A30 RMK A01 T00660058  RH  094%=      5-min Rain = 0
KOD1 221712Z 10008KT 07/06 A30 RMK A01 T00670059  RH  095%=      5-min Rain = 0
KOD1 221713Z 10009KT 07/06 A30 RMK A01 T00680060  RH  095%=      5-min Rain = 0
KOD1 221714Z 11010KT 07/06 A30 RMK A01 T00680059  RH  094%=      5-min Rain = 0
KOD1 221715Z 11010KT 07/06 A30 RMK A01 T00680059  RH  094%=      5-min Rain = 0
KOD1 221716Z 10011KT 07/06 A30 RMK A01 T00670058  RH  094%=      5-min Rain = 0
KOD1 221717Z 11009KT 07/06 A3001 RMK A01 T00660057  RH  094%=      5-min Rain = 0
KOD1 221718Z 11007KT 07/06 A3001 RMK A01 T00650057  RH  095%=      5-min Rain = 0
KOD1 221719Z 09008KT 07/06 A3001 RMK A01 T00660058  RH  095%=      5-min Rain = 0
KOD1 221720Z 09010KT 07/06 A3001 RMK A01 T00660058  RH  095%=      5-min Rain = 0
KOD1 221721Z 09009KT 07/06 A30 RMK A01 T00660059  RH  095%=      5-min Rain = 0
KOD1 221722Z 08009KT 07/06 A30 RMK A01 T00660057  RH  094%=      5-min Rain = 0
KOD1 221723Z 08007KT 07/06 A30 RMK A01 T00650057  RH  094%=      5-min Rain = 0
KOD1 221724Z 08007KT 07/06 A30 RMK A01 T00660058  RH  095%=      5-min Rain = 0
KOD1 221725Z 10007KT 07/06 A30 RMK A01 T00670060  RH  095%=      5-min Rain = 0
KOD1 221726Z 10008KT 07/06 A30 RMK A01 T00680060  RH  095%=      5-min Rain = 0
KOD1 221727Z 09008KT 07/06 A30 RMK A01 T00680060  RH  094%=      5-min Rain = 0
KOD1 221728Z 08008KT 07/06 A30 RMK A01 T00690060  RH  094%=      5-min Rain = 0
KOD1 221729Z 08007KT 07/06 A30 RMK A01 T00680059  RH  094%=      5-min Rain = 0
KOD1 221730Z 08009KT 07/06 A30 RMK A01 T00670058  RH  094%=      5-min Rain = 0
KOD1 221731Z 08009KT 07/06 A30 RMK A01 T00660057  RH  094%=      5-min Rain = 0
KOD1 221732Z 09008KT 07/06 A30 RMK A01 T00660058  RH  095%=      5-min Rain = 0
KOD1 221733Z 08007KT 07/06 A30 RMK A01 T00660059  RH  095%=      5-min Rain = 0
KOD1 221734Z 08007KT 07/06 A30 RMK A01 T00660059  RH  095%=      5-min Rain = 0
KOD1 221735Z 10007KT 07/06 A30 RMK A01 T00670060  RH  095%=      5-min Rain = 0
KOD1 221736Z 09006KT 07/06 A2999 RMK A01 T00670060  RH  095%=      5-min Rain = 0
KOD1 221737Z 08006KT 07/06 A2999 RMK A01 T00680060  RH  095%=      5-min Rain = 0
KOD1 221738Z 08005KT 07/06 A2999 RMK A01 T00680061  RH  095%=      5-min Rain = 0
KOD1 221739Z 09006KT 07/06 A30 RMK A01 T00690061  RH  095%=      5-min Rain = 0
KOD1 221740Z 10005KT 07/06 A2999 RMK A01 T00700063  RH  095%=      5-min Rain = 0
KOD1 221741Z 09006KT 07/06 A2999 RMK A01 T00700062  RH  095%=      5-min Rain = 0
KOD1 221742Z 09007KT 07/06 A2999 RMK A01 T00700061  RH  094%=      5-min Rain = 0
KOD1 221743Z 08006KT 07/06 A2999 RMK A01 T00690060  RH  094%=      5-min Rain = 0
KOD1 221744Z 07008KT 07/06 A2999 RMK A01 T00690060  RH  094%=      5-min Rain = 0
KOD1 221745Z 07007KT 07/06 A2999 RMK A01 T00680057  RH  093%=      5-min Rain = 0
KOD1 221746Z 07005KT 07/06 A2999 RMK A01 T00670057  RH  093%=      5-min Rain = 0
KOD1 221747Z 08007KT 07/06 A2999 RMK A01 T00680059  RH  094%=      5-min Rain = 0
KOD1 221748Z 09007KT 07/06 A2999 RMK A01 T00690060  RH  094%=      5-min Rain = 0
KOD1 221749Z 10007KT 07/06 A2999 RMK A01 T00690060  RH  094%=      5-min Rain = 0
KOD1 221750Z 10008KT 07/06 A2999 RMK A01 T00690059  RH  093%=      5-min Rain = 0
KOD1 221751Z 11008KT 07/06 A2999 RMK A01 T00700061  RH  094%=      5-min Rain = 0
KOD1 221752Z 11008KT 07/06 A2999 RMK A01 T00700060  RH  093%=      5-min Rain = 0
KOD1 221753Z 10010KT 07/06 A2999 RMK A01 T00700061  RH  094%=      5-min Rain = 0
KOD1 221754Z 09008KT 07/06 A2999 RMK A01 T00700061  RH  094%=      5-min Rain = 0
KOD1 221755Z 09009KT 07/06 A2999 RMK A01 T00690059  RH  093%=      5-min Rain = 0
KOD1 221756Z 09008KT 07/06 A2999 RMK A01 T00680058  RH  093%=      5-min Rain = 0
KOD1 221757Z 10007KT 07/06 A30 RMK A01 T00680058  RH  093%=      5-min Rain = 0
KOD1 221758Z 11007KT 07/06 A30 RMK A01 T00700061  RH  094%=      5-min Rain = 0
KOD1 221759Z 11008KT 07/06 A30 RMK A01 T00710061  RH  093%=      5-min Rain = 0
KOD1 221800Z 11007KT 07/06 A2999 RMK A01 T00710060  RH  093%=      5-min Rain = 0
KOD1 221801Z 11007KT 07/06 A2999 RMK A01 T00710061  RH  093%=      5-min Rain = 0
KOD1 221802Z 10008KT 07/06 A2999 RMK A01 T00700060  RH  093%=      5-min Rain = 0
KOD1 221803Z 11009KT 07/06 A2999 RMK A01 T00710060  RH  093%=      5-min Rain = 0
KOD1 221804Z 10007KT 07/06 A2999 RMK A01 T00700060  RH  093%=      5-min Rain = 0
KOD1 221805Z 10007KT 07/06 A2999 RMK A01 T00700060  RH  093%=      5-min Rain = 0
KOD1 221806Z 10007KT 07/06 A2999 RMK A01 T00690059  RH  093%=      5-min Rain = 0
KOD1 221807Z 10007KT 07/06 A2999 RMK A01 T00690059  RH  093%=      5-min Rain = 0
KOD1 221808Z 09007KT 07/06 A2999 RMK A01 T00700061  RH  094%=      5-min Rain = 0
KOD1 221809Z 09008KT 07/06 A2999 RMK A01 T00700060  RH  093%=      5-min Rain = 0
KOD1 221810Z 10008KT 07/06 A2999 RMK A01 T00700060  RH  093%=      5-min Rain = 0
KOD1 221811Z 11008KT 07/06 A2999 RMK A01 T00700059  RH  093%=      5-min Rain = 0
KOD1 221812Z 10007KT 07/06 A2999 RMK A01 T00700060  RH  094%=      5-min Rain = 0
KOD1 221813Z 10007KT 07/06 A2999 RMK A01 T00700060  RH  094%=      5-min Rain = 0
KOD1 221814Z 09006KT 07/06 A2999 RMK A01 T00700060  RH  094%=      5-min Rain = 0
KOD1 221815Z 10007KT 07/06 A2999 RMK A01 T00710063  RH  094%=      5-min Rain = 0
KOD1 221816Z 10007KT 07/06 A2999 RMK A01 T00720062  RH  093%=      5-min Rain = 0
KOD1 221817Z 10007KT 07/06 A2999 RMK A01 T00710060  RH  093%=      5-min Rain = 0
KOD1 221818Z 10007KT 07/06 A2999 RMK A01 T00710061  RH  093%=      5-min Rain = 0
KOD1 221819Z 12008KT 07/06 A2999 RMK A01 T00710060  RH  093%=      5-min Rain = 0
KOD1 221820Z 11007KT 07/06 A2999 RMK A01 T00710060  RH  093%=      5-min Rain = 0
KOD1 221821Z 12007KT 07/06 A2998 RMK A01 T00710060  RH  093%=      5-min Rain = 0
KOD1 221822Z 12008KT 07/06 A2998 RMK A01 T00710060  RH  093%=      5-min Rain = 0
KOD1 221823Z 11008KT 07/06 A2998 RMK A01 T00710060  RH  093%=      5-min Rain = 0
KOD1 221824Z 11007KT 07/06 A2998 RMK A01 T00720061  RH  093%=      5-min Rain = 0
KOD1 221825Z 10007KT 07/06 A2998 RMK A01 T00720062  RH  093%=      5-min Rain = 0
KOD1 221826Z 09009KT 07/06 A2998 RMK A01 T00730062  RH  093%=      5-min Rain = 0
KOD1 221827Z 09008KT 07/06 A2998 RMK A01 T00720061  RH  092%=      5-min Rain = 0
KOD1 221828Z 11007KT 07/06 A2998 RMK A01 T00730062  RH  093%=      5-min Rain = 0
KOD1 221829Z 11007KT 07/06 A2998 RMK A01 T00730061  RH  092%=      5-min Rain = 0
KOD1 221830Z 11007KT 07/06 A2998 RMK A01 T00740062  RH  092%=      5-min Rain = 0
KOD1 221831Z 10007KT 08/07 A2998 RMK A01 T00760065  RH  093%=      5-min Rain = 0
KOD1 221832Z 11008KT 08/06 A2998 RMK A01 T00760062  RH  091%=      5-min Rain = 0
KOD1 221833Z 11009KT 08/06 A2998 RMK A01 T00750061  RH  091%=      5-min Rain = 0
KOD1 221834Z 11009KT 08/06 A2998 RMK A01 T00750062  RH  092%=      5-min Rain = 0
KOD1 221835Z 11009KT 08/06 A2998 RMK A01 T00750061  RH  091%=      5-min Rain = 0
KOD1 221836Z 10009KT 07/06 A2998 RMK A01 T00740061  RH  091%=      5-min Rain = 0
KOD1 221837Z 10008KT 07/06 A2998 RMK A01 T00730060  RH  091%=      5-min Rain = 0
KOD1 221838Z 10006KT 07/06 A2998 RMK A01 T00740063  RH  092%=      5-min Rain = 0
KOD1 221839Z 10006KT 08/06 A2997 RMK A01 T00750063  RH  092%=      5-min Rain = 0
KOD1 221840Z 10006KT 08/06 A2997 RMK A01 T00760064  RH  092%=      5-min Rain = 0
KOD1 221841Z 08008KT 08/06 A2997 RMK A01 T00760064  RH  092%=      5-min Rain = 0
KOD1 221842Z 08009KT 07/06 A2997 RMK A01 T00740062  RH  092%=      5-min Rain = 0
KOD1 221843Z 09008KT 07/06 A2997 RMK A01 T00730061  RH  092%=      5-min Rain = 0
KOD1 221844Z 08009KT 07/06 A2997 RMK A01 T00720061  RH  092%=      5-min Rain = 0
KOD1 221845Z 08008KT 07/06 A2997 RMK A01 T00720061  RH  092%=      5-min Rain = 0
KOD1 221846Z 08007KT 07/06 A2997 RMK A01 T00710060  RH  092%=      5-min Rain = 0
KOD1 221847Z 08006KT 07/06 A2996 RMK A01 T00720061  RH  093%=      5-min Rain = 0
KOD1 221848Z 08008KT 07/06 A2996 RMK A01 T00720062  RH  093%=      5-min Rain = 0
KOD1 221849Z 07007KT 07/06 A2996 RMK A01 T00720062  RH  093%=      5-min Rain = 0
KOD1 221850Z 07008KT 07/06 A2996 RMK A01 T00720061  RH  093%=      5-min Rain = 0
KOD1 221851Z 07007KT 07/06 A2996 RMK A01 T00710060  RH  093%=      5-min Rain = 0
KOD1 221852Z 08006KT 07/06 A2996 RMK A01 T00720062  RH  093%=      5-min Rain = 0
KOD1 221853Z 08008KT 07/06 A2996 RMK A01 T00720062  RH  093%=      5-min Rain = 0
KOD1 221854Z 07006KT 07/06 A2996 RMK A01 T00720063  RH  093%=      5-min Rain = 0
KOD1 221855Z 08005KT 07/06 A2996 RMK A01 T00730063  RH  093%=      5-min Rain = 0
KOD1 221856Z 07005KT 07/06 A2996 RMK A01 T00730063  RH  093%=      5-min Rain = 0
KOD1 221857Z 09005KT 07/06 A2996 RMK A01 T00740063  RH  093%=      5-min Rain = 0
KOD1 221858Z 09007KT 07/06 A2996 RMK A01 T00740063  RH  093%=      5-min Rain = 0
KOD1 221859Z 09005KT 08/06 A2996 RMK A01 T00750064  RH  093%=      5-min Rain = 0
KOD1 221900Z 07005KT 08/06 A2996 RMK A01 T00750064  RH  093%=      5-min Rain = 0
KOD1 221901Z 06006KT 07/06 A2995 RMK A01 T00740062  RH  092%=      5-min Rain = 0
KOD1 221902Z 06008KT 07/06 A2995 RMK A01 T00740062  RH  092%=      5-min Rain = 0
KOD1 221903Z 08007KT 07/06 A2995 RMK A01 T00730061  RH  092%=      5-min Rain = 0
KOD1 221904Z 09006KT 07/06 A2995 RMK A01 T00730062  RH  093%=      5-min Rain = 0
KOD1 221905Z 10007KT 07/06 A2995 RMK A01 T00740063  RH  093%=      5-min Rain = 0
KOD1 221906Z 09008KT 07/06 A2995 RMK A01 T00730061  RH  092%=      5-min Rain = 0
KOD1 221907Z 09007KT 07/06 A2995 RMK A01 T00730060  RH  092%=      5-min Rain = 0
KOD1 221908Z 08008KT 07/06 A2995 RMK A01 T00730061  RH  092%=      5-min Rain = 0
KOD1 221909Z 08007KT 07/06 A2995 RMK A01 T00720060  RH  092%=      5-min Rain = 0
KOD1 221910Z 08006KT 07/06 A2995 RMK A01 T00720061  RH  093%=      5-min Rain = 0
KOD1 221911Z 09009KT 07/06 A2995 RMK A01 T00730061  RH  092%=      5-min Rain = 0
KOD1 221912Z 10008KT 07/06 A2995 RMK A01 T00730061  RH  092%=      5-min Rain = 0
KOD1 221913Z 11007KT 07/06 A2995 RMK A01 T00730061  RH  092%=      5-min Rain = 0
KOD1 221914Z 12006KT 07/06 A2995 RMK A01 T00730061  RH  092%=      5-min Rain = 0
KOD1 221915Z 12008KT 07/06 A2995 RMK A01 T00740061  RH  092%=      5-min Rain = 0
KOD1 221916Z 11008KT 07/06 A2995 RMK A01 T00740061  RH  092%=      5-min Rain = 0
KOD1 221917Z 12007KT 07/06 A2995 RMK A01 T00740061  RH  092%=      5-min Rain = 0
KOD1 221918Z 12007KT 07/06 A2995 RMK A01 T00730061  RH  092%=      5-min Rain = 0
KOD1 221919Z 11008KT 07/06 A2995 RMK A01 T00730060  RH  092%=      5-min Rain = 0
KOD1 221920Z 12007KT 07/06 A2995 RMK A01 T00730062  RH  093%=      5-min Rain = 0
KOD1 221921Z 11007KT 07/06 A2995 RMK A01 T00730062  RH  093%=      5-min Rain = 0
KOD1 221922Z 11008KT 07/06 A2995 RMK A01 T00740062  RH  092%=      5-min Rain = 0
KOD1 221923Z 10007KT 07/06 A2995 RMK A01 T00730060  RH  091%=      5-min Rain = 0
KOD1 221924Z 10007KT 07/06 A2995 RMK A01 T00730060  RH  091%=      5-min Rain = 0
KOD1 221925Z 10006KT 07/06 A2995 RMK A01 T00730060  RH  092%=      5-min Rain = 0
KOD1 221926Z 11007KT 07/06 A2995 RMK A01 T00740060  RH  091%=      5-min Rain = 0
KOD1 221927Z 11007KT 07/06 A2995 RMK A01 T00740061  RH  091%=      5-min Rain = 0
KOD1 221928Z 10006KT 07/06 A2995 RMK A01 T00740062  RH  092%=      5-min Rain = 0
KOD1 221929Z 11007KT 07/06 A2995 RMK A01 T00740060  RH  091%=      5-min Rain = 0
KOD1 221930Z 12006KT 07/06 A2995 RMK A01 T00730059  RH  091%=      5-min Rain = 0
KOD1 221931Z 11006KT 07/06 A2995 RMK A01 T00740060  RH  091%=      5-min Rain = 0
KOD1 221932Z 12006KT 07/06 A2995 RMK A01 T00740060  RH  091%=      5-min Rain = 0
KOD1 221933Z 12006KT 07/06 A2995 RMK A01 T00740061  RH  091%=      5-min Rain = 0
KOD1 221934Z 10005KT 07/06 A2995 RMK A01 T00740061  RH  091%=      5-min Rain = 0
KOD1 221935Z 12006KT 07/06 A2995 RMK A01 T00740061  RH  091%=      5-min Rain = 0
KOD1 221936Z 10006KT 07/06 A2995 RMK A01 T00740061  RH  091%=      5-min Rain = 0
KOD1 221937Z 10007KT 07/06 A2995 RMK A01 T00740062  RH  092%=      5-min Rain = 0
KOD1 221938Z 10007KT 07/06 A2994 RMK A01 T00740061  RH  091%=      5-min Rain = 0
KOD1 221939Z 10006KT 07/06 A2994 RMK A01 T00740061  RH  091%=      5-min Rain = 0
KOD1 221940Z 10007KT 07/06 A2994 RMK A01 T00740061  RH  091%=      5-min Rain = 0
KOD1 221941Z 11007KT 07/06 A2994 RMK A01 T00740061  RH  091%=      5-min Rain = 0
KOD1 221942Z 11007KT 07/06 A2994 RMK A01 T00740061  RH  091%=      5-min Rain = 0
KOD1 221943Z 11007KT 07/06 A2994 RMK A01 T00740061  RH  091%=      5-min Rain = 0
KOD1 221944Z 11008KT 07/06 A2994 RMK A01 T00740061  RH  091%=      5-min Rain = 0
KOD1 221945Z 10008KT 07/06 A2994 RMK A01 T00740061  RH  091%=      5-min Rain = 0
KOD1 221946Z 11008KT 07/06 A2994 RMK A01 T00740061  RH  092%=      5-min Rain = 0
KOD1 221947Z 11007KT 07/06 A2994 RMK A01 T00740062  RH  092%=      5-min Rain = 0
KOD1 221948Z 10008KT 07/06 A2994 RMK A01 T00740061  RH  092%=      5-min Rain = 0
KOD1 221949Z 10006KT 07/06 A2994 RMK A01 T00740062  RH  092%=      5-min Rain = 0
KOD1 221950Z 09008KT 08/06 A2994 RMK A01 T00750063  RH  092%=      5-min Rain = 0
KOD1 221951Z 10007KT 07/06 A2993 RMK A01 T00740061  RH  091%=      5-min Rain = 0
KOD1 221952Z 09008KT 07/06 A2993 RMK A01 T00740062  RH  092%=      5-min Rain = 0
KOD1 221953Z 09008KT 07/06 A2993 RMK A01 T00740061  RH  092%=      5-min Rain = 0
KOD1 221954Z 10008KT 07/06 A2993 RMK A01 T00740062  RH  092%=      5-min Rain = 0
KOD1 221955Z 09008KT 07/06 A2993 RMK A01 T00740062  RH  092%=      5-min Rain = 0
KOD1 221956Z 10009KT 07/06 A2993 RMK A01 T00740063  RH  092%=      5-min Rain = 0
KOD1 221957Z 10008KT 07/06 A2993 RMK A01 T00740063  RH  092%=      5-min Rain = 0
KOD1 221958Z 11007KT 07/06 A2993 RMK A01 T00740062  RH  092%=      5-min Rain = 0
KOD1 221959Z 11007KT 07/06 A2993 RMK A01 T00740062  RH  092%=      5-min Rain = 0
KOD1 222000Z 10008KT 07/06 A2993 RMK A01 T00730062  RH  092%=      5-min Rain = 0
KOD1 222001Z 10007KT 07/06 A2993 RMK A01 T00740063  RH  093%=      5-min Rain = 0
KOD1 222002Z 10007KT 07/06 A2993 RMK A01 T00740062  RH  093%=      5-min Rain = 0
KOD1 222003Z 10006KT 07/06 A2993 RMK A01 T00740063  RH  092%=      5-min Rain = 0
KOD1 222004Z 10007KT 07/06 A2993 RMK A01 T00740062  RH  092%=      5-min Rain = 0
KOD1 222005Z 10007KT 07/06 A2993 RMK A01 T00740062  RH  092%=      5-min Rain = 0
KOD1 222006Z 11007KT 07/06 A2993 RMK A01 T00740062  RH  092%=      5-min Rain = 0
KOD1 222007Z 10007KT 07/06 A2993 RMK A01 T00740063  RH  093%=      5-min Rain = 0
KOD1 222008Z 11007KT 07/06 A2993 RMK A01 T00740063  RH  093%=      5-min Rain = 0
KOD1 222009Z 11007KT 08/06 A2993 RMK A01 T00750063  RH  093%=      5-min Rain = 0
KOD1 222010Z 11008KT 07/06 A2993 RMK A01 T00740064  RH  093%=      5-min Rain = 0
KOD1 222011Z 10008KT 08/06 A2993 RMK A01 T00750064  RH  093%=      5-min Rain = 0
KOD1 222012Z 09008KT 07/06 A2993 RMK A01 T00740064  RH  093%=      5-min Rain = 0
KOD1 222013Z 10008KT 07/06 A2993 RMK A01 T00740064  RH  093%=      5-min Rain = 0
KOD1 222014Z 10008KT 07/06 A2993 RMK A01 T00740063  RH  093%=      5-min Rain = 0
KOD1 222015Z 10007KT 07/06 A2993 RMK A01 T00730063  RH  093%=      5-min Rain = 0
KOD1 222016Z 10006KT 07/06 A2993 RMK A01 T00730063  RH  093%=      5-min Rain = 0
KOD1 222017Z 11006KT 07/06 A2993 RMK A01 T00730063  RH  093%=      5-min Rain = 0
KOD1 222018Z 12005KT 07/06 A2993 RMK A01 T00730063  RH  093%=      5-min Rain = 0
KOD1 222019Z 11005KT 07/07 A2993 RMK A01 T00740065  RH  094%=      5-min Rain = 0
KOD1 222020Z 10007KT 07/07 A2993 RMK A01 T00740065  RH  094%=      5-min Rain = 0
KOD1 222021Z 10006KT 07/06 A2993 RMK A01 T00740064  RH  094%=      5-min Rain = 0
KOD1 222022Z 11006KT 07/07 A2992 RMK A01 T00740065  RH  094%=      5-min Rain = 0
KOD1 222023Z 11006KT 07/07 A2992 RMK A01 T00740065  RH  094%=      5-min Rain = 0
KOD1 222024Z 11007KT 07/07 A2993 RMK A01 T00740065  RH  094%=      5-min Rain = 0
KOD1 222025Z 11008KT 07/07 A2993 RMK A01 T00740065  RH  094%=      5-min Rain = 0
KOD1 222026Z 11006KT 07/07 A2993 RMK A01 T00740066  RH  095%=      5-min Rain = 0
KOD1 222027Z 10007KT 07/07 A2992 RMK A01 T00740065  RH  094%=      5-min Rain = 0
KOD1 222028Z 09005KT 07/07 A2992 RMK A01 T00740066  RH  094%=      5-min Rain = 0
KOD1 222029Z 09006KT 07/07 A2992 RMK A01 T00740066  RH  095%=      5-min Rain = 0
KOD1 222030Z 09004KT 07/07 A2992 RMK A01 T00740065  RH  094%=      5-min Rain = 0
KOD1 222031Z 10005KT 07/07 A2992 RMK A01 T00740067  RH  095%=      5-min Rain = 0
KOD1 222032Z 10006KT 07/07 A2993 RMK A01 T00740067  RH  095%=      5-min Rain = 0
KOD1 222033Z 11008KT 07/07 A2993 RMK A01 T00740066  RH  095%=      5-min Rain = 0
KOD1 222034Z 11008KT 07/07 A2993 RMK A01 T00740066  RH  095%=      5-min Rain = 0
KOD1 222035Z 11007KT 07/07 A2993 RMK A01 T00730066  RH  095%=      5-min Rain = 0
KOD1 222036Z 11007KT 07/07 A2993 RMK A01 T00730065  RH  095%=      5-min Rain = 0
KOD1 222037Z 11006KT 07/07 A2993 RMK A01 T00730066  RH  095%=      5-min Rain = 0
KOD1 222038Z 10005KT 07/07 A2993 RMK A01 T00730066  RH  095%=      5-min Rain = 0
KOD1 222039Z 10006KT 07/07 A2993 RMK A01 T00730066  RH  095%=      5-min Rain = 0
KOD1 222040Z 10005KT 07/07 A2993 RMK A01 T00730066  RH  095%=      5-min Rain = 0
KOD1 222041Z 11005KT 07/07 A2993 RMK A01 T00730067  RH  096%=      5-min Rain = 0
KOD1 222042Z 10004KT 07/07 A2993 RMK A01 T00740067  RH  096%=      5-min Rain = 0
KOD1 222043Z 10006KT 07/07 A2993 RMK A01 T00740067  RH  096%=      5-min Rain = 0
KOD1 222044Z 11006KT 07/07 A2993 RMK A01 T00730066  RH  095%=      5-min Rain = 0
KOD1 222045Z 11006KT 07/07 A2992 RMK A01 T00730067  RH  095%=      5-min Rain = 0
KOD1 222046Z 10005KT 07/07 A2992 RMK A01 T00740067  RH  096%=      5-min Rain = 0
KOD1 222047Z 11006KT 07/07 A2992 RMK A01 T00740067  RH  096%=      5-min Rain = 0
KOD1 222048Z 11005KT 07/07 A2992 RMK A01 T00740067  RH  095%=      5-min Rain = 0
KOD1 222049Z 11004KT 08/07 A2992 RMK A01 T00750068  RH  096%=      5-min Rain = 0
KOD1 222050Z 11005KT 08/07 A2992 RMK A01 T00750068  RH  095%=      5-min Rain = 0
KOD1 222051Z 11005KT 08/07 A2992 RMK A01 T00750068  RH  095%=      5-min Rain = 0
KOD1 222052Z 12006KT 08/07 A2992 RMK A01 T00750069  RH  096%=      5-min Rain = 0
KOD1 222053Z 12005KT 08/07 A2992 RMK A01 T00750068  RH  095%=      5-min Rain = 0
KOD1 222054Z 11005KT 08/07 A2992 RMK A01 T00750069  RH  096%=      5-min Rain = 0
KOD1 222055Z 12006KT 08/07 A2992 RMK A01 T00760069  RH  096%=      5-min Rain = 0
KOD1 222056Z 12007KT 08/07 A2992 RMK A01 T00760069  RH  095%=      5-min Rain = 0
KOD1 222057Z 11006KT 08/07 A2992 RMK A01 T00750067  RH  095%=      5-min Rain = 0
KOD1 222058Z 11006KT 08/07 A2992 RMK A01 T00750068  RH  095%=      5-min Rain = 0
KOD1 222059Z 11006KT 08/07 A2992 RMK A01 T00760069  RH  095%=      5-min Rain = 0
KOD1 222100Z 11006KT 08/07 A2992 RMK A01 T00760068  RH  095%=      5-min Rain = 0
KOD1 222101Z 11007KT 08/07 A2992 RMK A01 T00750068  RH  095%=      5-min Rain = 0
KOD1 222102Z 10007KT 08/07 A2992 RMK A01 T00750068  RH  095%=      5-min Rain = 0
KOD1 222103Z 10008KT 07/07 A2992 RMK A01 T00740067  RH  095%=      5-min Rain = 0
KOD1 222104Z 10007KT 07/07 A2992 RMK A01 T00740067  RH  095%=      5-min Rain = 0
KOD1 222105Z 11007KT 07/07 A2992 RMK A01 T00740067  RH  095%=      5-min Rain = 0
KOD1 222106Z 11007KT 07/07 A2992 RMK A01 T00740067  RH  095%=      5-min Rain = 0
KOD1 222107Z 10007KT 08/07 A2992 RMK A01 T00750067  RH  095%=      5-min Rain = 0
KOD1 222108Z 11007KT 08/07 A2992 RMK A01 T00750067  RH  095%=      5-min Rain = 0
KOD1 222109Z 10006KT 08/07 A2992 RMK A01 T00750068  RH  095%=      5-min Rain = 0
KOD1 222110Z 11006KT 08/07 A2992 RMK A01 T00760069  RH  095%=      5-min Rain = 0
KOD1 222111Z 11007KT 08/07 A2992 RMK A01 T00760068  RH  095%=      5-min Rain = 0
KOD1 222112Z 11008KT 08/07 A2992 RMK A01 T00750068  RH  095%=      5-min Rain = 0
KOD1 222113Z 11007KT 08/07 A2992 RMK A01 T00750068  RH  095%=      5-min Rain = 0
KOD1 222114Z 11007KT 08/07 A2992 RMK A01 T00750068  RH  095%=      5-min Rain = 0
KOD1 222115Z 12007KT 08/07 A2992 RMK A01 T00750068  RH  095%=      5-min Rain = 0
KOD1 222116Z 11006KT 08/07 A2992 RMK A01 T00760069  RH  096%=      5-min Rain = 0
KOD1 222117Z 11008KT 08/07 A2992 RMK A01 T00760068  RH  095%=      5-min Rain = 0
KOD1 222118Z 11007KT 08/07 A2992 RMK A01 T00750067  RH  095%=      5-min Rain = 0
KOD1 222119Z 11007KT 08/07 A2992 RMK A01 T00750068  RH  095%=      5-min Rain = 0
KOD1 222120Z 11008KT 08/07 A2992 RMK A01 T00760069  RH  095%=      5-min Rain = 0
KOD1 222121Z 11007KT 08/07 A2992 RMK A01 T00760069  RH  095%=      5-min Rain = 0
KOD1 222122Z 11007KT 08/07 A2992 RMK A01 T00760070  RH  096%=      5-min Rain = 0
KOD1 222123Z 11006KT 08/07 A2992 RMK A01 T00760069  RH  095%=      5-min Rain = 0
KOD1 222124Z 11005KT 08/07 A2992 RMK A01 T00760070  RH  096%=      5-min Rain = 0
KOD1 222125Z 11006KT 08/07 A2992 RMK A01 T00770071  RH  096%=      5-min Rain = 0
KOD1 222126Z 12007KT 08/07 A2992 RMK A01 T00760069  RH  095%=      5-min Rain = 0
KOD1 222127Z 11006KT 08/07 A2992 RMK A01 T00760069  RH  095%=      5-min Rain = 0
KOD1 222128Z 11006KT 08/07 A2992 RMK A01 T00770071  RH  096%=      5-min Rain = 0
KOD1 222129Z 11006KT 08/07 A2992 RMK A01 T00770071  RH  096%=      5-min Rain = 0
KOD1 222130Z 11007KT 08/07 A2992 RMK A01 T00760069  RH  095%=      5-min Rain = 0
KOD1 222131Z 11007KT 08/07 A2992 RMK A01 T00760069  RH  095%=      5-min Rain = 0
KOD1 222132Z 11006KT 08/07 A2992 RMK A01 T00760069  RH  095%=      5-min Rain = 0
KOD1 222133Z 11006KT 08/07 A2992 RMK A01 T00760069  RH  095%=      5-min Rain = 0
KOD1 222134Z 10007KT 08/07 A2992 RMK A01 T00760070  RH  095%=      5-min Rain = 0
KOD1 222135Z 10007KT 08/07 A2992 RMK A01 T00760069  RH  095%=      5-min Rain = 0
KOD1 222136Z 10007KT 08/07 A2992 RMK A01 T00760069  RH  095%=      5-min Rain = 0
KOD1 222137Z 10006KT 08/07 A2992 RMK A01 T00760069  RH  095%=      5-min Rain = 0
KOD1 222138Z 10007KT 08/07 A2992 RMK A01 T00760069  RH  095%=      5-min Rain = 0
KOD1 222139Z 10006KT 08/07 A2992 RMK A01 T00770071  RH  096%=      5-min Rain = 0
KOD1 222140Z 10006KT 08/07 A2992 RMK A01 T00770071  RH  096%=      5-min Rain = 0
KOD1 222141Z 11007KT 08/07 A2992 RMK A01 T00770070  RH  096%=      5-min Rain = 0
KOD1 222142Z 11008KT 08/07 A2992 RMK A01 T00770070  RH  096%=      5-min Rain = 0
KOD1 222143Z 11008KT 08/07 A2992 RMK A01 T00770070  RH  095%=      5-min Rain = 0
KOD1 222144Z 11007KT 08/07 A2992 RMK A01 T00760069  RH  095%=      5-min Rain = 0
KOD1 222145Z 11008KT 08/07 A2992 RMK A01 T00770069  RH  095%=      5-min Rain = 0
KOD1 222146Z 12006KT 08/07 A2992 RMK A01 T00770070  RH  095%=      5-min Rain = 0
KOD1 222147Z 11007KT 08/07 A2992 RMK A01 T00770070  RH  096%=      5-min Rain = 0
KOD1 222148Z 10006KT 08/07 A2992 RMK A01 T00770070  RH  095%=      5-min Rain = 0
KOD1 222149Z 10007KT 08/07 A2992 RMK A01 T00770070  RH  095%=      5-min Rain = 0
KOD1 222150Z 11008KT 08/07 A2992 RMK A01 T00760069  RH  095%=      5-min Rain = 0
KOD1 222151Z 10008KT 08/07 A2992 RMK A01 T00760068  RH  095%=      5-min Rain = 0
KOD1 222152Z 11007KT 08/07 A2991 RMK A01 T00760068  RH  095%=      5-min Rain = 0
KOD1 222153Z 11007KT 08/07 A2991 RMK A01 T00760069  RH  095%=      5-min Rain = 0
KOD1 222154Z 11007KT 08/07 A2991 RMK A01 T00770070  RH  095%=      5-min Rain = 0
KOD1 222155Z 11007KT 08/07 A2991 RMK A01 T00770070  RH  095%=      5-min Rain = 0
KOD1 222156Z 10006KT 08/07 A2991 RMK A01 T00770070  RH  095%=      5-min Rain = 0
KOD1 222157Z 10007KT 08/07 A2991 RMK A01 T00770070  RH  095%=      5-min Rain = 0
KOD1 222158Z 10006KT 08/07 A2991 RMK A01 T00770070  RH  095%=      5-min Rain = 0
KOD1 222159Z 11005KT 08/07 A2991 RMK A01 T00780071  RH  096%=      5-min Rain = 0
KOD1 222200Z 09005KT 08/07 A2991 RMK A01 T00780072  RH  096%=      5-min Rain = 0
KOD1 222201Z 10007KT 08/07 A2991 RMK A01 T00780071  RH  095%=      5-min Rain = 0
KOD1 222202Z 10008KT 08/07 A2991 RMK A01 T00780070  RH  095%=      5-min Rain = 0
KOD1 222203Z 11007KT 08/07 A2991 RMK A01 T00780070  RH  095%=      5-min Rain = 0
KOD1 222204Z 10007KT 08/07 A2991 RMK A01 T00770069  RH  095%=      5-min Rain = 0
KOD1 222205Z 11007KT 08/07 A2991 RMK A01 T00770070  RH  095%=      5-min Rain = 0
KOD1 222206Z 11008KT 08/07 A2991 RMK A01 T00770070  RH  095%=      5-min Rain = 0
KOD1 222207Z 11008KT 08/07 A2991 RMK A01 T00770069  RH  095%=      5-min Rain = 0
KOD1 222208Z 10007KT 08/07 A2991 RMK A01 T00770070  RH  095%=      5-min Rain = 0
KOD1 222209Z 10007KT 08/07 A2991 RMK A01 T00770070  RH  095%=      5-min Rain = 0
KOD1 222210Z 11006KT 08/07 A2991 RMK A01 T00770070  RH  096%=      5-min Rain = 0
KOD1 222211Z 12007KT 08/07 A2991 RMK A01 T00770070  RH  095%=      5-min Rain = 0
KOD1 222212Z 11006KT 08/07 A2991 RMK A01 T00770069  RH  095%=      5-min Rain = 0
KOD1 222213Z 11006KT 08/07 A2991 RMK A01 T00770070  RH  095%=      5-min Rain = 0
KOD1 222214Z 11007KT 08/07 A2991 RMK A01 T00770070  RH  095%=      5-min Rain = 0.01
KOD1 222215Z 12007KT 08/07 A2991 RMK A01 T00770070  RH  095%=      5-min Rain = 0
KOD1 222216Z 12007KT 08/07 A2991 RMK A01 T00770069  RH  095%=      5-min Rain = 0
KOD1 222217Z 12006KT 08/07 A2991 RMK A01 T00770069  RH  094%=      5-min Rain = 0
KOD1 222218Z 10006KT 08/07 A2991 RMK A01 T00780070  RH  095%=      5-min Rain = 0
KOD1 222219Z 10007KT 08/07 A2991 RMK A01 T00780070  RH  095%=      5-min Rain = 0
KOD1 222220Z 10007KT 08/07 A2991 RMK A01 T00770068  RH  094%=      5-min Rain = 0
KOD1 222221Z 10007KT 08/07 A2991 RMK A01 T00770069  RH  095%=      5-min Rain = 0
KOD1 222222Z 10008KT 08/07 A2991 RMK A01 T00770068  RH  094%=      5-min Rain = 0
KOD1 222223Z 10007KT 08/07 A2991 RMK A01 T00770069  RH  094%=      5-min Rain = 0
KOD1 222224Z 10008KT 08/07 A2991 RMK A01 T00770069  RH  095%=      5-min Rain = 0
KOD1 222225Z 10007KT 08/07 A2991 RMK A01 T00760067  RH  094%=      5-min Rain = 0
KOD1 222226Z 11007KT 08/07 A2991 RMK A01 T00760067  RH  094%=      5-min Rain = 0
KOD1 222227Z 11008KT 08/07 A2991 RMK A01 T00770067  RH  094%=      5-min Rain = 0
KOD1 222228Z 12008KT 08/07 A2991 RMK A01 T00770067  RH  093%=      5-min Rain = 0
KOD1 222229Z 11007KT 08/07 A2991 RMK A01 T00770067  RH  094%=      5-min Rain = 0
KOD1 222230Z 09006KT 08/07 A2991 RMK A01 T00780069  RH  094%=      5-min Rain = 0
KOD1 222231Z 10005KT 08/07 A2991 RMK A01 T00770069  RH  094%=      5-min Rain = 0
KOD1 222232Z 09006KT 08/07 A2991 RMK A01 T00770069  RH  095%=      5-min Rain = 0
KOD1 222233Z 10007KT 08/07 A2991 RMK A01 T00770070  RH  095%=      5-min Rain = 0
KOD1 222234Z 10008KT 08/07 A2991 RMK A01 T00770069  RH  095%=      5-min Rain = 0
KOD1 222235Z 10006KT 08/07 A2991 RMK A01 T00760068  RH  095%=      5-min Rain = 0
KOD1 222236Z 10005KT 08/07 A2991 RMK A01 T00770069  RH  095%=      5-min Rain = 0
KOD1 222237Z 10005KT 08/07 A2991 RMK A01 T00770069  RH  095%=      5-min Rain = 0
KOD1 222238Z 11007KT 08/07 A2991 RMK A01 T00760069  RH  095%=      5-min Rain = 0
KOD1 222239Z 11006KT 08/07 A2991 RMK A01 T00760069  RH  095%=      5-min Rain = 0
KOD1 222240Z 10006KT 08/07 A2991 RMK A01 T00760070  RH  095%=      5-min Rain = 0
KOD1 222241Z 10005KT 08/07 A2991 RMK A01 T00760069  RH  095%=      5-min Rain = 0
KOD1 222242Z 10005KT 08/07 A2991 RMK A01 T00770070  RH  096%=      5-min Rain = 0
KOD1 222243Z 10007KT 08/07 A2991 RMK A01 T00760069  RH  095%=      5-min Rain = 0
KOD1 222244Z 11007KT 08/07 A2991 RMK A01 T00760069  RH  095%=      5-min Rain = 0
KOD1 222245Z 11008KT 08/07 A2991 RMK A01 T00760069  RH  095%=      5-min Rain = 0
KOD1 222246Z 11008KT 08/07 A2991 RMK A01 T00760068  RH  095%=      5-min Rain = 0
KOD1 222247Z 11008KT 08/07 A2991 RMK A01 T00750068  RH  095%=      5-min Rain = 0
KOD1 222248Z 10009KT 08/07 A2991 RMK A01 T00750068  RH  095%=      5-min Rain = 0
KOD1 222249Z 10008KT 08/07 A2991 RMK A01 T00750068  RH  095%=      5-min Rain = 0
KOD1 222250Z 10006KT 08/07 A2991 RMK A01 T00750068  RH  095%=      5-min Rain = 0
KOD1 222251Z 09006KT 08/07 A2991 RMK A01 T00750068  RH  095%=      5-min Rain = 0
KOD1 222252Z 10007KT 08/07 A2991 RMK A01 T00750068  RH  096%=      5-min Rain = 0
KOD1 222253Z 10006KT 08/07 A2991 RMK A01 T00750068  RH  096%=      5-min Rain = 0
KOD1 222254Z 11006KT 08/07 A2991 RMK A01 T00750069  RH  096%=      5-min Rain = 0
KOD1 222255Z 10006KT 08/07 A2991 RMK A01 T00750069  RH  096%=      5-min Rain = 0
KOD1 222256Z 11006KT 08/07 A2991 RMK A01 T00750069  RH  096%=      5-min Rain = 0
KOD1 222257Z 11006KT 08/07 A2991 RMK A01 T00750069  RH  096%=      5-min Rain = 0
KOD1 222258Z 10006KT 08/07 A2991 RMK A01 T00750069  RH  096%=      5-min Rain = 0
KOD1 222259Z 10005KT 08/07 A2991 RMK A01 T00750069  RH  096%=      5-min Rain = 0
KOD1 222300Z 11005KT 08/07 A2991 RMK A01 T00750069  RH  096%=      5-min Rain = 0
KOD1 222301Z 11005KT 08/07 A2991 RMK A01 T00750069  RH  096%=      5-min Rain = 0
KOD1 222302Z 10007KT 08/07 A2991 RMK A01 T00760070  RH  096%=      5-min Rain = 0
KOD1 222303Z 10008KT 08/07 A2991 RMK A01 T00750069  RH  096%=      5-min Rain = 0
KOD1 222304Z 10008KT 08/07 A2991 RMK A01 T00750068  RH  096%=      5-min Rain = 0
KOD1 222305Z 10008KT 07/07 A2991 RMK A01 T00740068  RH  096%=      5-min Rain = 0
KOD1 222306Z 10008KT 08/07 A2991 RMK A01 T00750068  RH  096%=      5-min Rain = 0
KOD1 222307Z 10007KT 07/07 A2991 RMK A01 T00740068  RH  096%=      5-min Rain = 0
KOD1 222308Z 10008KT 08/07 A2991 RMK A01 T00750068  RH  096%=      5-min Rain = 0
KOD1 222309Z 10007KT 08/07 A299 RMK A01 T00750069  RH  096%=      5-min Rain = 0
KOD1 222310Z 10006KT 08/07 A299 RMK A01 T00750069  RH  096%=      5-min Rain = 0
KOD1 222311Z 10006KT 08/07 A299 RMK A01 T00750069  RH  096%=      5-min Rain = 0
KOD1 222312Z 10005KT 08/07 A299 RMK A01 T00760070  RH  096%=      5-min Rain = 0
KOD1 222313Z 10007KT 08/07 A299 RMK A01 T00750070  RH  096%=      5-min Rain = 0
KOD1 222314Z 10007KT 08/07 A299 RMK A01 T00750068  RH  096%=      5-min Rain = 0
KOD1 222315Z 10006KT 08/07 A299 RMK A01 T00750069  RH  096%=      5-min Rain = 0
KOD1 222316Z 09005KT 08/07 A299 RMK A01 T00750069  RH  096%=      5-min Rain = 0
KOD1 222317Z 09007KT 08/07 A299 RMK A01 T00750069  RH  096%=      5-min Rain = 0
KOD1 222318Z 09008KT 08/07 A299 RMK A01 T00750069  RH  096%=      5-min Rain = 0
KOD1 222319Z 08007KT 08/07 A299 RMK A01 T00750069  RH  096%=      5-min Rain = 0
KOD1 222320Z 09007KT 08/07 A299 RMK A01 T00750069  RH  096%=      5-min Rain = 0
KOD1 222321Z 09007KT 07/07 A299 RMK A01 T00740069  RH  096%=      5-min Rain = 0
KOD1 222322Z 09006KT 07/07 A299 RMK A01 T00740069  RH  096%=      5-min Rain = 0
KOD1 222323Z 09006KT 08/07 A299 RMK A01 T00750069  RH  097%=      5-min Rain = 0
KOD1 222324Z 09007KT 07/07 A299 RMK A01 T00740069  RH  096%=      5-min Rain = 0
KOD1 222325Z 09007KT 07/07 A299 RMK A01 T00740069  RH  097%=      5-min Rain = 0
KOD1 222326Z 09006KT 07/07 A2989 RMK A01 T00740070  RH  097%=      5-min Rain = 0
KOD1 222327Z 09007KT 08/07 A2989 RMK A01 T00750069  RH  097%=      5-min Rain = 0
KOD1 222328Z 10007KT 08/07 A2989 RMK A01 T00750069  RH  097%=      5-min Rain = 0
KOD1 222329Z 08005KT 07/07 A2989 RMK A01 T00740069  RH  097%=      5-min Rain = 0
KOD1 222330Z 08006KT 07/07 A2989 RMK A01 T00740070  RH  097%=      5-min Rain = 0
KOD1 222331Z 08008KT 07/07 A2989 RMK A01 T00740069  RH  097%=      5-min Rain = 0
KOD1 222332Z 08008KT 07/07 A2989 RMK A01 T00740069  RH  097%=      5-min Rain = 0
KOD1 222333Z 08007KT 07/07 A2989 RMK A01 T00740069  RH  097%=      5-min Rain = 0
KOD1 222334Z 08006KT 07/07 A2989 RMK A01 T00740069  RH  097%=      5-min Rain = 0
KOD1 222335Z 08007KT 07/07 A2989 RMK A01 T00740069  RH  097%=      5-min Rain = 0
KOD1 222336Z 08007KT 07/07 A2989 RMK A01 T00740070  RH  097%=      5-min Rain = 0
KOD1 222337Z 09007KT 07/07 A2989 RMK A01 T00740069  RH  097%=      5-min Rain = 0
KOD1 222338Z 08006KT 07/07 A2989 RMK A01 T00740069  RH  097%=      5-min Rain = 0
KOD1 222339Z 08007KT 07/07 A2989 RMK A01 T00740069  RH  097%=      5-min Rain = 0
KOD1 222340Z 09006KT 07/07 A2989 RMK A01 T00740069  RH  097%=      5-min Rain = 0
KOD1 222341Z 08006KT 07/07 A2989 RMK A01 T00740069  RH  097%=      5-min Rain = 0
KOD1 222342Z 08007KT 07/07 A2989 RMK A01 T00740069  RH  097%=      5-min Rain = 0
KOD1 222343Z 09006KT 07/07 A2989 RMK A01 T00740069  RH  097%=      5-min Rain = 0
KOD1 222344Z 09006KT 07/07 A2989 RMK A01 T00740069  RH  097%=      5-min Rain = 0
KOD1 222345Z 09006KT 07/07 A2989 RMK A01 T00740070  RH  097%=      5-min Rain = 0
KOD1 222346Z 09008KT 07/07 A2989 RMK A01 T00740070  RH  097%=      5-min Rain = 0
KOD1 222347Z 09007KT 07/07 A2989 RMK A01 T00740070  RH  097%=      5-min Rain = 0
KOD1 222348Z 09007KT 07/07 A2989 RMK A01 T00740070  RH  097%=      5-min Rain = 0
KOD1 222349Z 10006KT 07/07 A2989 RMK A01 T00740069  RH  097%=      5-min Rain = 0
KOD1 222350Z 09007KT 07/07 A2989 RMK A01 T00740070  RH  097%=      5-min Rain = 0
KOD1 222351Z 09007KT 07/07 A2989 RMK A01 T00740069  RH  097%=      5-min Rain = 0
KOD1 222352Z 10006KT 07/07 A2989 RMK A01 T00740069  RH  097%=      5-min Rain = 0
KOD1 222353Z 09006KT 07/07 A2989 RMK A01 T00740070  RH  097%=      5-min Rain = 0
KOD1 222354Z 09006KT 07/07 A2989 RMK A01 T00740070  RH  097%=      5-min Rain = 0
KOD1 222355Z 09007KT 07/07 A2989 RMK A01 T00740070  RH  097%=      5-min Rain = 0
KOD1 222356Z 09008KT 07/07 A2989 RMK A01 T00740070  RH  097%=      5-min Rain = 0
KOD1 222357Z 09008KT 07/07 A2989 RMK A01 T00740070  RH  097%=      5-min Rain = 0
KOD1 222358Z 08008KT 07/07 A2989 RMK A01 T00740070  RH  097%=      5-min Rain = 0
KOD1 222359Z 08006KT 07/07 A2988 RMK A01 T00740070  RH  097%=      5-min Rain = 0
KOD1 230000Z 09007KT 07/07 A2988 RMK A01 T00740070  RH  097%=      5-min Rain = 0
KOD1 230001Z 09007KT 07/07 A2988 RMK A01 T00740070  RH  097%=      5-min Rain = 0
KOD1 230002Z 08008KT 07/07 A2989 RMK A01 T00740070  RH  097%=      5-min Rain = 0
KOD1 230003Z 09007KT 07/07 A2989 RMK A01 T00740070  RH  097%=      5-min Rain = 0
KOD1 230004Z 09007KT 07/07 A2989 RMK A01 T00740070  RH  097%=      5-min Rain = 0
KOD1 230005Z 09006KT 07/07 A2988 RMK A01 T00740070  RH  097%=      5-min Rain = 0
KOD1 230006Z 09006KT 07/07 A2988 RMK A01 T00740070  RH  097%=      5-min Rain = 0
KOD1 230007Z 09007KT 07/07 A2988 RMK A01 T00740070  RH  097%=      5-min Rain = 0
KOD1 230008Z 09007KT 07/07 A2988 RMK A01 T00740070  RH  098%=      5-min Rain = 0
KOD1 230009Z 09006KT 07/07 A2988 RMK A01 T00740070  RH  098%=      5-min Rain = 0
KOD1 230010Z 09007KT 07/07 A2988 RMK A01 T00740070  RH  098%=      5-min Rain = 0
KOD1 230011Z 09007KT 07/07 A2988 RMK A01 T00740070  RH  097%=      5-min Rain = 0
KOD1 230012Z 09008KT 07/07 A2988 RMK A01 T00740070  RH  098%=      5-min Rain = 0
KOD1 230013Z 10008KT 07/07 A2988 RMK A01 T00740070  RH  098%=      5-min Rain = 0
KOD1 230014Z 09007KT 07/07 A2988 RMK A01 T00740070  RH  098%=      5-min Rain = 0
KOD1 230015Z 09006KT 07/07 A2988 RMK A01 T00740070  RH  098%=      5-min Rain = 0
KOD1 230016Z 09007KT 07/07 A2988 RMK A01 T00740070  RH  098%=      5-min Rain = 0
KOD1 230017Z 09007KT 07/07 A2988 RMK A01 T00740070  RH  098%=      5-min Rain = 0
KOD1 230018Z 09006KT 07/07 A2988 RMK A01 T00740070  RH  098%=      5-min Rain = 0
KOD1 230019Z 09008KT 07/07 A2988 RMK A01 T00740070  RH  098%=      5-min Rain = 0
KOD1 230020Z 10008KT 07/07 A2988 RMK A01 T00740070  RH  098%=      5-min Rain = 0
KOD1 230021Z 10008KT 07/07 A2988 RMK A01 T00740070  RH  098%=      5-min Rain = 0
KOD1 230022Z 09006KT 07/07 A2988 RMK A01 T00740070  RH  098%=      5-min Rain = 0
KOD1 230023Z 10006KT 07/07 A2988 RMK A01 T00740070  RH  098%=      5-min Rain = 0
KOD1 230024Z 09007KT 07/07 A2987 RMK A01 T00740070  RH  098%=      5-min Rain = 0
KOD1 230025Z 09007KT 07/07 A2987 RMK A01 T00740070  RH  098%=      5-min Rain = 0
KOD1 230026Z 09007KT 07/07 A2987 RMK A01 T00740070  RH  098%=      5-min Rain = 0
KOD1 230027Z 09007KT 07/07 A2987 RMK A01 T00740070  RH  098%=      5-min Rain = 0
KOD1 230028Z 09007KT 07/07 A2987 RMK A01 T00740070  RH  098%=      5-min Rain = 0
KOD1 230029Z 09007KT 07/07 A2987 RMK A01 T00740070  RH  098%=      5-min Rain = 0
KOD1 230030Z 09006KT 07/07 A2987 RMK A01 T00740070  RH  098%=      5-min Rain = 0
KOD1 230031Z 08008KT 07/07 A2987 RMK A01 T00740070  RH  098%=      5-min Rain = 0
KOD1 230032Z 08007KT 07/07 A2987 RMK A01 T00740070  RH  098%=      5-min Rain = 0
KOD1 230033Z 08007KT 07/07 A2987 RMK A01 T00740070  RH  098%=      5-min Rain = 0
KOD1 230034Z 08006KT 07/07 A2987 RMK A01 T00740070  RH  098%=      5-min Rain = 0
KOD1 230035Z 08006KT 07/07 A2987 RMK A01 T00740070  RH  098%=      5-min Rain = 0
KOD1 230036Z 08006KT 07/07 A2987 RMK A01 T00740070  RH  098%=      5-min Rain = 0
KOD1 230037Z 08006KT 07/07 A2987 RMK A01 T00740070  RH  098%=      5-min Rain = 0
KOD1 230038Z 09007KT 07/07 A2987 RMK A01 T00730070  RH  098%=      5-min Rain = 0
KOD1 230039Z 08006KT 07/07 A2987 RMK A01 T00730070  RH  098%=      5-min Rain = 0
KOD1 230040Z 09007KT 07/07 A2987 RMK A01 T00730070  RH  098%=      5-min Rain = 0
KOD1 230041Z 09006KT 07/07 A2987 RMK A01 T00730070  RH  098%=      5-min Rain = 0
KOD1 230042Z 08006KT 07/07 A2987 RMK A01 T00730070  RH  098%=      5-min Rain = 0
KOD1 230043Z 08005KT 07/07 A2987 RMK A01 T00730070  RH  098%=      5-min Rain = 0
KOD1 230044Z 08004KT 07/07 A2987 RMK A01 T00730070  RH  098%=      5-min Rain = 0
KOD1 230045Z 09005KT 07/07 A2987 RMK A01 T00730070  RH  098%=      5-min Rain = 0
KOD1 230046Z 09006KT 07/07 A2987 RMK A01 T00730070  RH  098%=      5-min Rain = 0
KOD1 230047Z 09005KT 07/07 A2987 RMK A01 T00730070  RH  098%=      5-min Rain = 0
KOD1 230048Z 09005KT 07/07 A2987 RMK A01 T00730070  RH  098%=      5-min Rain = 0
KOD1 230049Z 09005KT 07/07 A2987 RMK A01 T00730070  RH  098%=      5-min Rain = 0
KOD1 230050Z 10004KT 07/07 A2987 RMK A01 T00740070  RH  098%=      5-min Rain = 0
KOD1 230051Z 10005KT 07/07 A2987 RMK A01 T00740071  RH  098%=      5-min Rain = 0
KOD1 230052Z 09004KT 07/07 A2987 RMK A01 T00740070  RH  098%=      5-min Rain = 0
KOD1 230053Z 09005KT 07/07 A2987 RMK A01 T00740070  RH  098%=      5-min Rain = 0
KOD1 230054Z 10005KT 07/07 A2987 RMK A01 T00730070  RH  098%=      5-min Rain = 0
KOD1 230055Z 10006KT 07/07 A2987 RMK A01 T00730070  RH  098%=      5-min Rain = 0
KOD1 230056Z 10005KT 07/07 A2987 RMK A01 T00730070  RH  098%=      5-min Rain = 0
KOD1 230057Z 10005KT 07/07 A2987 RMK A01 T00730070  RH  098%=      5-min Rain = 0
KOD1 230058Z 10004KT 07/07 A2987 RMK A01 T00730070  RH  098%=      5-min Rain = 0
KOD1 230059Z 10004KT 07/07 A2987 RMK A01 T00730070  RH  098%=      5-min Rain = 0
KOD1 230100Z 10005KT 07/07 A2987 RMK A01 T00730070  RH  098%=      5-min Rain = 0
KOD1 230101Z 10005KT 07/07 A2987 RMK A01 T00730070  RH  098%=      5-min Rain = 0
KOD1 230102Z 10004KT 07/07 A2987 RMK A01 T00730070  RH  098%=      5-min Rain = 0
KOD1 230103Z 09004KT 07/07 A2987 RMK A01 T00730070  RH  098%=      5-min Rain = 0
KOD1 230104Z 10003KT 07/07 A2987 RMK A01 T00730070  RH  098%=      5-min Rain = 0
KOD1 230105Z 10005KT 07/07 A2987 RMK A01 T00730070  RH  098%=      5-min Rain = 0
KOD1 230106Z 09005KT 07/07 A2987 RMK A01 T00730070  RH  098%=      5-min Rain = 0
KOD1 230107Z 09005KT 07/07 A2987 RMK A01 T00730070  RH  098%=      5-min Rain = 0
KOD1 230108Z 10006KT 07/07 A2987 RMK A01 T00730070  RH  098%=      5-min Rain = 0
KOD1 230109Z 10005KT 07/07 A2987 RMK A01 T00730070  RH  098%=      5-min Rain = 0
KOD1 230110Z 10006KT 07/07 A2987 RMK A01 T00730070  RH  098%=      5-min Rain = 0
KOD1 230111Z 11005KT 07/07 A2987 RMK A01 T00730070  RH  098%=      5-min Rain = 0
KOD1 230112Z 11005KT 07/07 A2987 RMK A01 T00730070  RH  098%=      5-min Rain = 0
KOD1 230113Z 10005KT 07/07 A2987 RMK A01 T00730070  RH  098%=      5-min Rain = 0
KOD1 230114Z 10005KT 07/07 A2987 RMK A01 T00730070  RH  098%=      5-min Rain = 0
KOD1 230115Z 10005KT 07/07 A2987 RMK A01 T00730070  RH  098%=      5-min Rain = 0
KOD1 230116Z 10004KT 07/07 A2987 RMK A01 T00730070  RH  098%=      5-min Rain = 0
KOD1 230117Z 10004KT 07/07 A2987 RMK A01 T00730070  RH  098%=      5-min Rain = 0
KOD1 230118Z 10005KT 07/07 A2987 RMK A01 T00740071  RH  098%=      5-min Rain = 0
KOD1 230119Z 10005KT 07/07 A2987 RMK A01 T00740071  RH  098%=      5-min Rain = 0
KOD1 230120Z 09007KT 07/07 A2987 RMK A01 T00730071  RH  098%=      5-min Rain = 0
KOD1 230121Z 09006KT 07/07 A2987 RMK A01 T00730070  RH  098%=      5-min Rain = 0
KOD1 230122Z 09006KT 07/07 A2987 RMK A01 T00730070  RH  098%=      5-min Rain = 0
KOD1 230123Z 10006KT 07/07 A2987 RMK A01 T00730070  RH  098%=      5-min Rain = 0
KOD1 230124Z 10006KT 07/07 A2987 RMK A01 T00730070  RH  098%=      5-min Rain = 0
KOD1 230125Z 10006KT 07/07 A2987 RMK A01 T00730070  RH  098%=      5-min Rain = 0
KOD1 230126Z 10007KT 07/07 A2987 RMK A01 T00730070  RH  098%=      5-min Rain = 0
KOD1 230127Z 10007KT 07/07 A2987 RMK A01 T00730070  RH  098%=      5-min Rain = 0
KOD1 230128Z 10006KT 07/07 A2987 RMK A01 T00730070  RH  098%=      5-min Rain = 0
KOD1 230129Z 11006KT 07/07 A2987 RMK A01 T00730070  RH  098%=      5-min Rain = 0
KOD1 230130Z 11007KT 07/07 A2987 RMK A01 T00730070  RH  098%=      5-min Rain = 0
KOD1 230131Z 10006KT 07/07 A2987 RMK A01 T00730070  RH  098%=      5-min Rain = 0
KOD1 230132Z 11006KT 07/07 A2987 RMK A01 T00730070  RH  098%=      5-min Rain = 0
KOD1 230133Z 11006KT 07/07 A2987 RMK A01 T00730070  RH  098%=      5-min Rain = 0
KOD1 230134Z 10007KT 07/07 A2988 RMK A01 T00730071  RH  098%=      5-min Rain = 0
KOD1 230135Z 11007KT 07/07 A2988 RMK A01 T00730070  RH  098%=      5-min Rain = 0
KOD1 230136Z 10007KT 07/07 A2988 RMK A01 T00730071  RH  098%=      5-min Rain = 0
KOD1 230137Z 10007KT 07/07 A2988 RMK A01 T00730070  RH  098%=      5-min Rain = 0
KOD1 230138Z 11009KT 07/07 A2988 RMK A01 T00730070  RH  098%=      5-min Rain = 0
KOD1 230139Z 11008KT 07/07 A2988 RMK A01 T00730070  RH  098%=      5-min Rain = 0
KOD1 230140Z 11008KT 07/07 A2988 RMK A01 T00730070  RH  098%=      5-min Rain = 0
KOD1 230141Z 11008KT 07/07 A2988 RMK A01 T00730070  RH  098%=      5-min Rain = 0
KOD1 230142Z 11009KT 07/07 A2988 RMK A01 T00730070  RH  098%=      5-min Rain = 0
KOD1 230143Z 11008KT 07/07 A2988 RMK A01 T00730070  RH  098%=      5-min Rain = 0
KOD1 230144Z 11009KT 07/07 A2988 RMK A01 T00730070  RH  098%=      5-min Rain = 0
KOD1 230145Z 11009KT 07/07 A2988 RMK A01 T00730070  RH  098%=      5-min Rain = 0
KOD1 230146Z 11008KT 07/07 A2988 RMK A01 T00730070  RH  098%=      5-min Rain = 0
KOD1 230147Z 11008KT 07/07 A2988 RMK A01 T00730070  RH  098%=      5-min Rain = 0
KOD1 230148Z 11007KT 07/07 A2988 RMK A01 T00730070  RH  098%=      5-min Rain = 0
KOD1 230149Z 11008KT 07/07 A2988 RMK A01 T00730070  RH  098%=      5-min Rain = 0
KOD1 230150Z 11009KT 07/07 A2988 RMK A01 T00730070  RH  098%=      5-min Rain = 0
KOD1 230151Z 11008KT 07/07 A2988 RMK A01 T00730070  RH  098%=      5-min Rain = 0
KOD1 230152Z 10008KT 07/07 A2988 RMK A01 T00730070  RH  098%=      5-min Rain = 0
KOD1 230153Z 12008KT 07/07 A2988 RMK A01 T00730070  RH  098%=      5-min Rain = 0
KOD1 230154Z 10007KT 07/07 A2988 RMK A01 T00730070  RH  098%=      5-min Rain = 0
KOD1 230155Z 11008KT 07/07 A2988 RMK A01 T00730070  RH  098%=      5-min Rain = 0
KOD1 230156Z 11009KT 07/07 A2988 RMK A01 T00730070  RH  098%=      5-min Rain = 0
KOD1 230157Z 10008KT 07/07 A2988 RMK A01 T00730070  RH  098%=      5-min Rain = 0
KOD1 230158Z 11008KT 07/07 A2988 RMK A01 T00730070  RH  098%=      5-min Rain = 0
KOD1 230159Z 10008KT 07/07 A2988 RMK A01 T00730071  RH  098%=      5-min Rain = 0
KOD1 230200Z 11008KT 07/07 A2988 RMK A01 T00730070  RH  098%=      5-min Rain = 0
KOD1 230201Z 11009KT 07/07 A2988 RMK A01 T00730070  RH  098%=      5-min Rain = 0
KOD1 230202Z 11008KT 07/07 A2988 RMK A01 T00730071  RH  098%=      5-min Rain = 0
KOD1 230203Z 11008KT 07/07 A2988 RMK A01 T00730070  RH  098%=      5-min Rain = 0
KOD1 230204Z 11008KT 07/07 A2988 RMK A01 T00730070  RH  098%=      5-min Rain = 0
KOD1 230205Z 10008KT 07/07 A2988 RMK A01 T00730071  RH  098%=      5-min Rain = 0
KOD1 230206Z 11008KT 07/07 A2988 RMK A01 T00730071  RH  098%=      5-min Rain = 0
KOD1 230207Z 10007KT 07/07 A2988 RMK A01 T00730071  RH  098%=      5-min Rain = 0
KOD1 230208Z 11008KT 07/07 A2988 RMK A01 T00730071  RH  098%=      5-min Rain = 0
KOD1 230209Z 11007KT 07/07 A2988 RMK A01 T00730071  RH  098%=      5-min Rain = 0
KOD1 230210Z 11006KT 07/07 A2988 RMK A01 T00730071  RH  098%=      5-min Rain = 0
KOD1 230211Z 11006KT 07/07 A2988 RMK A01 T00730071  RH  098%=      5-min Rain = 0
KOD1 230212Z 11007KT 07/07 A2989 RMK A01 T00730071  RH  098%=      5-min Rain = 0
KOD1 230213Z 12008KT 07/07 A2989 RMK A01 T00730071  RH  098%=      5-min Rain = 0
KOD1 230214Z 11008KT 07/07 A2989 RMK A01 T00730071  RH  098%=      5-min Rain = 0
KOD1 230215Z 11008KT 07/07 A2989 RMK A01 T00730071  RH  098%=      5-min Rain = 0
KOD1 230216Z 11008KT 07/07 A2989 RMK A01 T00730071  RH  098%=      5-min Rain = 0
KOD1 230217Z 11007KT 07/07 A2989 RMK A01 T00730071  RH  098%=      5-min Rain = 0
KOD1 230218Z 11005KT 07/07 A2989 RMK A01 T00730071  RH  098%=      5-min Rain = 0
KOD1 230219Z 11005KT 07/07 A2989 RMK A01 T00730071  RH  098%=      5-min Rain = 0
KOD1 230220Z 12006KT 07/07 A2989 RMK A01 T00730071  RH  098%=      5-min Rain = 0
KOD1 230221Z 11006KT 07/07 A2989 RMK A01 T00730070  RH  098%=      5-min Rain = 0
KOD1 230222Z 11005KT 07/07 A2989 RMK A01 T00730071  RH  098%=      5-min Rain = 0
KOD1 230223Z 11007KT 07/07 A2989 RMK A01 T00730070  RH  098%=      5-min Rain = 0
KOD1 230224Z 11007KT 07/07 A2989 RMK A01 T00730071  RH  098%=      5-min Rain = 0
KOD1 230225Z 11007KT 07/07 A2989 RMK A01 T00730070  RH  098%=      5-min Rain = 0
KOD1 230226Z 11008KT 07/07 A2989 RMK A01 T00730071  RH  098%=      5-min Rain = 0
KOD1 230227Z 11008KT 07/07 A2989 RMK A01 T00730071  RH  098%=      5-min Rain = 0
KOD1 230228Z 11007KT 07/07 A2989 RMK A01 T00730071  RH  098%=      5-min Rain = 0
KOD1 230229Z 11008KT 07/07 A2989 RMK A01 T00730071  RH  098%=      5-min Rain = 0
KOD1 230230Z 11007KT 07/07 A2989 RMK A01 T00730071  RH  098%=      5-min Rain = 0
KOD1 230231Z 11006KT 07/07 A2989 RMK A01 T00730071  RH  098%=      5-min Rain = 0
KOD1 230232Z 11006KT 07/07 A2989 RMK A01 T00730071  RH  098%=      5-min Rain = 0
KOD1 230233Z 11007KT 07/07 A2989 RMK A01 T00730071  RH  098%=      5-min Rain = 0
KOD1 230234Z 11007KT 07/07 A2989 RMK A01 T00730071  RH  098%=      5-min Rain = 0
KOD1 230235Z 11007KT 07/07 A2989 RMK A01 T00730071  RH  098%=      5-min Rain = 0
KOD1 230236Z 11007KT 07/07 A2989 RMK A01 T00730071  RH  098%=      5-min Rain = 0
KOD1 230237Z 10005KT 07/07 A2989 RMK A01 T00730070  RH  098%=      5-min Rain = 0
KOD1 230238Z 11008KT 07/07 A2989 RMK A01 T00730071  RH  098%=      5-min Rain = 0
KOD1 230239Z 11006KT 07/07 A2989 RMK A01 T00730071  RH  098%=      5-min Rain = 0.01
KOD1 230240Z 11005KT 07/07 A2989 RMK A01 T00730071  RH  098%=      5-min Rain = 0
KOD1 230241Z 10005KT 07/07 A2989 RMK A01 T00730071  RH  098%=      5-min Rain = 0
KOD1 230242Z 10007KT 07/07 A2989 RMK A01 T00730071  RH  098%=      5-min Rain = 0
KOD1 230243Z 11007KT 07/07 A2989 RMK A01 T00730071  RH  098%=      5-min Rain = 0
KOD1 230244Z 11007KT 07/07 A2989 RMK A01 T00730071  RH  098%=      5-min Rain = 0
KOD1 230245Z 10007KT 07/07 A2989 RMK A01 T00730071  RH  098%=      5-min Rain = 0
KOD1 230246Z 11008KT 07/07 A2989 RMK A01 T00730070  RH  098%=      5-min Rain = 0
KOD1 230247Z 10007KT 07/07 A2989 RMK A01 T00730071  RH  098%=      5-min Rain = 0
KOD1 230248Z 10008KT 07/07 A2989 RMK A01 T00730070  RH  098%=      5-min Rain = 0
KOD1 230249Z 10007KT 07/07 A2989 RMK A01 T00730071  RH  098%=      5-min Rain = 0
KOD1 230250Z 10006KT 07/07 A2989 RMK A01 T00730071  RH  098%=      5-min Rain = 0
KOD1 230251Z 10006KT 07/07 A2989 RMK A01 T00730071  RH  098%=      5-min Rain = 0
KOD1 230252Z 10007KT 07/07 A2989 RMK A01 T00730071  RH  098%=      5-min Rain = 0
KOD1 230253Z 10006KT 07/07 A2989 RMK A01 T00730071  RH  098%=      5-min Rain = 0
KOD1 230254Z 09005KT 07/07 A2988 RMK A01 T00730071  RH  098%=      5-min Rain = 0
KOD1 230255Z 10006KT 07/07 A2988 RMK A01 T00730070  RH  098%=      5-min Rain = 0
KOD1 230256Z 10007KT 07/07 A2988 RMK A01 T00730070  RH  098%=      5-min Rain = 0
KOD1 230257Z 09006KT 07/07 A2988 RMK A01 T00730070  RH  098%=      5-min Rain = 0
KOD1 230258Z 09006KT 07/07 A2988 RMK A01 T00730070  RH  098%=      5-min Rain = 0
KOD1 230259Z 10006KT 07/07 A2988 RMK A01 T00730070  RH  098%=      5-min Rain = 0
KOD1 230300Z 10007KT 07/07 A2988 RMK A01 T00730070  RH  098%=      5-min Rain = 0
KOD1 230301Z 10007KT 07/07 A2988 RMK A01 T00730070  RH  098%=      5-min Rain = 0
KOD1 230302Z 09007KT 07/07 A2988 RMK A01 T00720070  RH  098%=      5-min Rain = 0
KOD1 230303Z 09007KT 07/07 A2988 RMK A01 T00730070  RH  098%=      5-min Rain = 0
KOD1 230304Z 10007KT 07/07 A2988 RMK A01 T00720070  RH  098%=      5-min Rain = 0
KOD1 230305Z 10007KT 07/07 A2988 RMK A01 T00730070  RH  098%=      5-min Rain = 0
KOD1 230306Z 10008KT 07/07 A2988 RMK A01 T00720070  RH  098%=      5-min Rain = 0
KOD1 230307Z 10007KT 07/07 A2988 RMK A01 T00730070  RH  098%=      5-min Rain = 0
KOD1 230308Z 10007KT 07/07 A2988 RMK A01 T00720070  RH  098%=      5-min Rain = 0
KOD1 230309Z 10007KT 07/07 A2988 RMK A01 T00720070  RH  098%=      5-min Rain = 0
KOD1 230310Z 10007KT 07/07 A2988 RMK A01 T00730070  RH  098%=      5-min Rain = 0
KOD1 230311Z 10007KT 07/07 A2988 RMK A01 T00720070  RH  098%=      5-min Rain = 0
KOD1 230312Z 10007KT 07/07 A2988 RMK A01 T00730070  RH  098%=      5-min Rain = 0
KOD1 230313Z 10008KT 07/07 A2988 RMK A01 T00720070  RH  098%=      5-min Rain = 0
KOD1 230314Z 10007KT 07/07 A2988 RMK A01 T00730070  RH  098%=      5-min Rain = 0
KOD1 230315Z 10008KT 07/07 A2988 RMK A01 T00720070  RH  098%=      5-min Rain = 0
KOD1 230316Z 10008KT 07/07 A2988 RMK A01 T00730070  RH  098%=      5-min Rain = 0
KOD1 230317Z 10007KT 07/07 A2988 RMK A01 T00730070  RH  098%=      5-min Rain = 0
KOD1 230318Z 10008KT 07/07 A2988 RMK A01 T00730070  RH  098%=      5-min Rain = 0
KOD1 230319Z 10009KT 07/07 A2988 RMK A01 T00720070  RH  098%=      5-min Rain = 0
KOD1 230320Z 10009KT 07/07 A2988 RMK A01 T00720070  RH  098%=      5-min Rain = 0
KOD1 230321Z 10008KT 07/07 A2988 RMK A01 T00730070  RH  098%=      5-min Rain = 0
KOD1 230322Z 10009KT 07/07 A2987 RMK A01 T00730070  RH  098%=      5-min Rain = 0
KOD1 230323Z 10009KT 07/07 A2987 RMK A01 T00720070  RH  098%=      5-min Rain = 0
KOD1 230324Z 09008KT 07/07 A2987 RMK A01 T00730070  RH  098%=      5-min Rain = 0
KOD1 230325Z 11008KT 07/07 A2988 RMK A01 T00720070  RH  098%=      5-min Rain = 0
KOD1 230326Z 10008KT 07/07 A2988 RMK A01 T00730070  RH  098%=      5-min Rain = 0
KOD1 230327Z 10009KT 07/07 A2987 RMK A01 T00720070  RH  098%=      5-min Rain = 0
KOD1 230328Z 10008KT 07/07 A2987 RMK A01 T00730070  RH  098%=      5-min Rain = 0
KOD1 230329Z 10007KT 07/07 A2987 RMK A01 T00720070  RH  098%=      5-min Rain = 0
KOD1 230330Z 10008KT 07/07 A2987 RMK A01 T00730070  RH  098%=      5-min Rain = 0
KOD1 230331Z 10008KT 07/07 A2987 RMK A01 T00730070  RH  098%=      5-min Rain = 0
KOD1 230332Z 10009KT 07/07 A2987 RMK A01 T00720070  RH  098%=      5-min Rain = 0
KOD1 230333Z 10007KT 07/07 A2988 RMK A01 T00730070  RH  098%=      5-min Rain = 0
KOD1 230334Z 11006KT 07/07 A2988 RMK A01 T00720070  RH  098%=      5-min Rain = 0
KOD1 230335Z 10008KT 07/07 A2988 RMK A01 T00730070  RH  098%=      5-min Rain = 0
KOD1 230336Z 11007KT 07/07 A2988 RMK A01 T00720070  RH  098%=      5-min Rain = 0
KOD1 230337Z 10008KT 07/07 A2987 RMK A01 T00730070  RH  098%=      5-min Rain = 0
KOD1 230338Z 11008KT 07/07 A2987 RMK A01 T00720070  RH  098%=      5-min Rain = 0
KOD1 230339Z 10009KT 07/07 A2987 RMK A01 T00720070  RH  098%=      5-min Rain = 0
KOD1 230340Z 11008KT 07/07 A2987 RMK A01 T00730070  RH  098%=      5-min Rain = 0
KOD1 230341Z 11009KT 07/07 A2987 RMK A01 T00730070  RH  098%=      5-min Rain = 0
KOD1 230342Z 11009KT 07/07 A2987 RMK A01 T00730070  RH  098%=      5-min Rain = 0
KOD1 230343Z 11009KT 07/07 A2987 RMK A01 T00720070  RH  098%=      5-min Rain = 0
KOD1 230344Z 12008KT 07/07 A2987 RMK A01 T00730070  RH  098%=      5-min Rain = 0
KOD1 230345Z 11007KT 07/07 A2987 RMK A01 T00720070  RH  098%=      5-min Rain = 0
KOD1 230346Z 11010KT 07/07 A2987 RMK A01 T00720070  RH  098%=      5-min Rain = 0
KOD1 230347Z 11009KT 07/07 A2987 RMK A01 T00720070  RH  098%=      5-min Rain = 0
KOD1 230348Z 11009KT 07/07 A2987 RMK A01 T00720070  RH  099%=      5-min Rain = 0
KOD1 230349Z 11008KT 07/07 A2987 RMK A01 T00730070  RH  098%=      5-min Rain = 0
KOD1 230350Z 11009KT 07/07 A2987 RMK A01 T00720070  RH  099%=      5-min Rain = 0
KOD1 230351Z 12008KT 07/07 A2987 RMK A01 T00730070  RH  099%=      5-min Rain = 0
KOD1 230352Z 12008KT 07/07 A2987 RMK A01 T00720070  RH  099%=      5-min Rain = 0
KOD1 230353Z 11008KT 07/07 A2987 RMK A01 T00730070  RH  099%=      5-min Rain = 0
KOD1 230354Z 11008KT 07/07 A2987 RMK A01 T00720070  RH  099%=      5-min Rain = 0
KOD1 230355Z 11008KT 07/07 A2987 RMK A01 T00720070  RH  099%=      5-min Rain = 0
KOD1 230356Z 11008KT 07/07 A2987 RMK A01 T00720070  RH  098%=      5-min Rain = 0
KOD1 230357Z 11009KT 07/07 A2987 RMK A01 T00720070  RH  098%=      5-min Rain = 0
KOD1 230358Z 11008KT 07/07 A2987 RMK A01 T00720070  RH  099%=      5-min Rain = 0
KOD1 230359Z 11006KT 07/07 A2987 RMK A01 T00720070  RH  098%=      5-min Rain = 0
KOD1 230400Z 11006KT 07/07 A2987 RMK A01 T00720070  RH  098%=      5-min Rain = 0
KOD1 230401Z 11006KT 07/07 A2987 RMK A01 T00720070  RH  098%=      5-min Rain = 0
KOD1 230402Z 11007KT 07/07 A2987 RMK A01 T00720070  RH  099%=      5-min Rain = 0
KOD1 230403Z 12006KT 07/07 A2987 RMK A01 T00720070  RH  098%=      5-min Rain = 0
KOD1 230404Z 12006KT 07/07 A2986 RMK A01 T00720070  RH  098%=      5-min Rain = 0
KOD1 230405Z 11007KT 07/07 A2986 RMK A01 T00720070  RH  098%=      5-min Rain = 0
KOD1 230406Z 11007KT 07/07 A2986 RMK A01 T00720070  RH  098%=      5-min Rain = 0
KOD1 230407Z 11008KT 07/07 A2986 RMK A01 T00720070  RH  098%=      5-min Rain = 0
KOD1 230408Z 11008KT 07/07 A2986 RMK A01 T00720069  RH  098%=      5-min Rain = 0
KOD1 230409Z 11008KT 07/07 A2986 RMK A01 T00720069  RH  098%=      5-min Rain = 0
KOD1 230410Z 11008KT 07/07 A2986 RMK A01 T00720069  RH  098%=      5-min Rain = 0
KOD1 230411Z 11008KT 07/07 A2986 RMK A01 T00720069  RH  098%=      5-min Rain = 0
KOD1 230412Z 10009KT 07/07 A2986 RMK A01 T00720069  RH  098%=      5-min Rain = 0
KOD1 230413Z 10008KT 07/07 A2986 RMK A01 T00720069  RH  099%=      5-min Rain = 0
KOD1 230414Z 11009KT 07/07 A2986 RMK A01 T00720069  RH  098%=      5-min Rain = 0
KOD1 230415Z 11009KT 07/07 A2986 RMK A01 T00720069  RH  099%=      5-min Rain = 0
KOD1 230416Z 11009KT 07/07 A2986 RMK A01 T00720070  RH  099%=      5-min Rain = 0
KOD1 230417Z 11008KT 07/07 A2986 RMK A01 T00720069  RH  098%=      5-min Rain = 0
KOD1 230418Z 11007KT 07/07 A2985 RMK A01 T00720069  RH  099%=      5-min Rain = 0
KOD1 230419Z 11008KT 07/07 A2985 RMK A01 T00720069  RH  099%=      5-min Rain = 0
KOD1 230420Z 10008KT 07/07 A2985 RMK A01 T00720070  RH  099%=      5-min Rain = 0
KOD1 230421Z 10008KT 07/07 A2985 RMK A01 T00720070  RH  099%=      5-min Rain = 0
KOD1 230422Z 11007KT 07/07 A2985 RMK A01 T00720070  RH  099%=      5-min Rain = 0
KOD1 230423Z 10009KT 07/07 A2985 RMK A01 T00720070  RH  099%=      5-min Rain = 0
KOD1 230424Z 10009KT 07/07 A2985 RMK A01 T00720069  RH  099%=      5-min Rain = 0
KOD1 230425Z 11009KT 07/07 A2985 RMK A01 T00720070  RH  099%=      5-min Rain = 0
KOD1 230426Z 10010KT 07/07 A2985 RMK A01 T00720070  RH  099%=      5-min Rain = 0
KOD1 230427Z 10009KT 07/07 A2984 RMK A01 T00710069  RH  099%=      5-min Rain = 0
KOD1 230428Z 10009KT 07/07 A2984 RMK A01 T00710069  RH  099%=      5-min Rain = 0
KOD1 230429Z 10010KT 07/07 A2984 RMK A01 T00710069  RH  099%=      5-min Rain = 0
KOD1 230430Z 10011KT 07/07 A2984 RMK A01 T00710069  RH  099%=      5-min Rain = 0
KOD1 230431Z 10009KT 07/07 A2984 RMK A01 T00710069  RH  099%=      5-min Rain = 0
KOD1 230432Z 10009KT 07/07 A2984 RMK A01 T00710069  RH  099%=      5-min Rain = 0
KOD1 230433Z 10009KT 07/07 A2984 RMK A01 T00710069  RH  099%=      5-min Rain = 0
KOD1 230434Z 10008KT 07/07 A2984 RMK A01 T00710069  RH  099%=      5-min Rain = 0
KOD1 230435Z 10009KT 07/07 A2984 RMK A01 T00710069  RH  099%=      5-min Rain = 0
KOD1 230436Z 09008KT 07/07 A2984 RMK A01 T00710069  RH  099%=      5-min Rain = 0
KOD1 230437Z 10008KT 07/07 A2984 RMK A01 T00710069  RH  099%=      5-min Rain = 0
KOD1 230438Z 10008KT 07/07 A2983 RMK A01 T00710069  RH  099%=      5-min Rain = 0
KOD1 230439Z 09009KT 07/07 A2983 RMK A01 T00710069  RH  099%=      5-min Rain = 0
KOD1 230440Z 09009KT 07/07 A2983 RMK A01 T00710069  RH  099%=      5-min Rain = 0
KOD1 230441Z 10008KT 07/07 A2983 RMK A01 T00710069  RH  099%=      5-min Rain = 0
KOD1 230442Z 10008KT 07/07 A2983 RMK A01 T00710069  RH  099%=      5-min Rain = 0
KOD1 230443Z 09007KT 07/07 A2983 RMK A01 T00710069  RH  099%=      5-min Rain = 0
KOD1 230444Z 08007KT 07/07 A2983 RMK A01 T00710069  RH  099%=      5-min Rain = 0
KOD1 230445Z 09009KT 07/07 A2983 RMK A01 T00710069  RH  099%=      5-min Rain = 0
KOD1 230446Z 09009KT 07/07 A2983 RMK A01 T00710069  RH  099%=      5-min Rain = 0
KOD1 230447Z 09007KT 07/07 A2983 RMK A01 T00710069  RH  099%=      5-min Rain = 0
KOD1 230448Z 09008KT 07/07 A2983 RMK A01 T00710069  RH  099%=      5-min Rain = 0
KOD1 230449Z 09008KT 07/07 A2983 RMK A01 T00710069  RH  099%=      5-min Rain = 0
KOD1 230450Z 09008KT 07/07 A2983 RMK A01 T00710069  RH  099%=      5-min Rain = 0
KOD1 230451Z 09008KT 07/07 A2983 RMK A01 T00710069  RH  099%=      5-min Rain = 0
KOD1 230452Z 09009KT 07/07 A2983 RMK A01 T00710069  RH  099%=      5-min Rain = 0
KOD1 230453Z 09009KT 07/07 A2982 RMK A01 T00710069  RH  099%=      5-min Rain = 0
KOD1 230454Z 09009KT 07/07 A2982 RMK A01 T00710069  RH  099%=      5-min Rain = 0
KOD1 230455Z 09009KT 07/07 A2982 RMK A01 T00710069  RH  099%=      5-min Rain = 0
KOD1 230456Z 09008KT 07/07 A2982 RMK A01 T00710069  RH  099%=      5-min Rain = 0
KOD1 230457Z 09008KT 07/07 A2982 RMK A01 T00710069  RH  099%=      5-min Rain = 0
KOD1 230458Z 09010KT 07/07 A2982 RMK A01 T00710069  RH  099%=      5-min Rain = 0
KOD1 230459Z 09009KT 07/07 A2982 RMK A01 T00710069  RH  099%=      5-min Rain = 0
KOD1 230500Z 09009KT 07/07 A2982 RMK A01 T00710069  RH  099%=      5-min Rain = 0
KOD1 230501Z 09009KT 07/07 A2982 RMK A01 T00700069  RH  099%=      5-min Rain = 0
KOD1 230502Z 09009KT 07/07 A2982 RMK A01 T00700069  RH  099%=      5-min Rain = 0
KOD1 230503Z 09009KT 07/07 A2982 RMK A01 T00710069  RH  099%=      5-min Rain = 0
KOD1 230504Z 08009KT 07/07 A2981 RMK A01 T00700069  RH  099%=      5-min Rain = 0
KOD1 230505Z 09011KT 07/07 A2981 RMK A01 T00710069  RH  099%=      5-min Rain = 0
KOD1 230506Z 09010KT 07/07 A2981 RMK A01 T00710069  RH  099%=      5-min Rain = 0
KOD1 230507Z 09009KT 07/07 A2981 RMK A01 T00710069  RH  099%=      5-min Rain = 0
KOD1 230508Z 09008KT 07/07 A2981 RMK A01 T00700069  RH  099%=      5-min Rain = 0
KOD1 230509Z 09010KT 07/07 A2981 RMK A01 T00700069  RH  099%=      5-min Rain = 0
KOD1 230510Z 09010KT 07/07 A2981 RMK A01 T00710069  RH  099%=      5-min Rain = 0
KOD1 230511Z 09009KT 07/07 A2981 RMK A01 T00700069  RH  099%=      5-min Rain = 0
KOD1 230512Z 09009KT 07/07 A298 RMK A01 T00710069  RH  099%=      5-min Rain = 0
KOD1 230513Z 09011KT 07/07 A298 RMK A01 T00700069  RH  099%=      5-min Rain = 0
KOD1 230514Z 09010KT 07/07 A298 RMK A01 T00710069  RH  099%=      5-min Rain = 0
KOD1 230515Z 09013KT 07/07 A298 RMK A01 T00710069  RH  099%=      5-min Rain = 0
KOD1 230516Z 09010KT 07/07 A298 RMK A01 T00710069  RH  099%=      5-min Rain = 0
KOD1 230517Z 08009KT 07/07 A298 RMK A01 T00700069  RH  099%=      5-min Rain = 0
KOD1 230518Z 09010KT 07/07 A298 RMK A01 T00710069  RH  099%=      5-min Rain = 0
KOD1 230519Z 09010KT 07/07 A298 RMK A01 T00700068  RH  099%=      5-min Rain = 0
KOD1 230520Z 09009KT 07/07 A298 RMK A01 T00700068  RH  099%=      5-min Rain = 0
KOD1 230521Z 09008KT 07/07 A2981 RMK A01 T00700068  RH  099%=      5-min Rain = 0
KOD1 230522Z 10008KT 07/07 A2981 RMK A01 T00700068  RH  099%=      5-min Rain = 0
KOD1 230523Z 10008KT 07/07 A2981 RMK A01 T00710069  RH  099%=      5-min Rain = 0
KOD1 230524Z 10007KT 07/07 A2981 RMK A01 T00710069  RH  099%=      5-min Rain = 0
KOD1 230525Z 10007KT 07/07 A2981 RMK A01 T00710069  RH  099%=      5-min Rain = 0
KOD1 230526Z 10007KT 07/07 A2981 RMK A01 T00700069  RH  099%=      5-min Rain = 0
KOD1 230527Z 10007KT 07/07 A2981 RMK A01 T00710069  RH  099%=      5-min Rain = 0
KOD1 230528Z 10008KT 07/07 A2981 RMK A01 T00700069  RH  099%=      5-min Rain = 0
KOD1 230529Z 10007KT 07/07 A2981 RMK A01 T00710069  RH  099%=      5-min Rain = 0
KOD1 230530Z 10008KT 07/07 A2981 RMK A01 T00700069  RH  099%=      5-min Rain = 0
KOD1 230531Z 10008KT 07/07 A2981 RMK A01 T00710069  RH  099%=      5-min Rain = 0
KOD1 230532Z 11009KT 07/07 A2981 RMK A01 T00700069  RH  099%=      5-min Rain = 0
KOD1 230533Z 10008KT 07/07 A2981 RMK A01 T00710069  RH  099%=      5-min Rain = 0
KOD1 230534Z 10009KT 07/07 A2981 RMK A01 T00700069  RH  099%=      5-min Rain = 0
KOD1 230535Z 10008KT 07/07 A2981 RMK A01 T00710069  RH  099%=      5-min Rain = 0
KOD1 230536Z 10008KT 07/07 A2981 RMK A01 T00710069  RH  099%=      5-min Rain = 0
KOD1 230537Z 10007KT 07/07 A2981 RMK A01 T00710069  RH  099%=      5-min Rain = 0
KOD1 230538Z 10007KT 07/07 A2981 RMK A01 T00710069  RH  099%=      5-min Rain = 0
KOD1 230539Z 10007KT 07/07 A2981 RMK A01 T00710069  RH  099%=      5-min Rain = 0
KOD1 230540Z 10007KT 07/07 A2981 RMK A01 T00710069  RH  099%=      5-min Rain = 0
KOD1 230541Z 10007KT 07/07 A2981 RMK A01 T00710069  RH  099%=      5-min Rain = 0
KOD1 230542Z 10007KT 07/07 A2981 RMK A01 T00710069  RH  099%=      5-min Rain = 0
KOD1 230543Z 11007KT 07/07 A2981 RMK A01 T00710069  RH  099%=      5-min Rain = 0
KOD1 230544Z 10006KT 07/07 A2981 RMK A01 T00710069  RH  099%=      5-min Rain = 0
KOD1 230545Z 11008KT 07/07 A2981 RMK A01 T00710069  RH  099%=      5-min Rain = 0
KOD1 230546Z 10008KT 07/07 A2981 RMK A01 T00710069  RH  099%=      5-min Rain = 0
KOD1 230547Z 10007KT 07/07 A298 RMK A01 T00700069  RH  099%=      5-min Rain = 0
KOD1 230548Z 10007KT 07/07 A298 RMK A01 T00710069  RH  099%=      5-min Rain = 0
KOD1 230549Z 11008KT 07/07 A298 RMK A01 T00700069  RH  099%=      5-min Rain = 0
KOD1 230550Z 11008KT 07/07 A298 RMK A01 T00710069  RH  099%=      5-min Rain = 0
KOD1 230551Z 11006KT 07/07 A298 RMK A01 T00710069  RH  099%=      5-min Rain = 0
KOD1 230552Z 10008KT 07/07 A298 RMK A01 T00710069  RH  099%=      5-min Rain = 0
KOD1 230553Z 10008KT 07/07 A298 RMK A01 T00710069  RH  099%=      5-min Rain = 0
KOD1 230554Z 11009KT 07/07 A298 RMK A01 T00700069  RH  099%=      5-min Rain = 0
KOD1 230555Z 11007KT 07/07 A298 RMK A01 T00710069  RH  099%=      5-min Rain = 0
KOD1 230556Z 11008KT 07/07 A298 RMK A01 T00700069  RH  099%=      5-min Rain = 0
KOD1 230557Z 11008KT 07/07 A298 RMK A01 T00710069  RH  099%=      5-min Rain = 0
KOD1 230558Z 10007KT 07/07 A298 RMK A01 T00700069  RH  099%=      5-min Rain = 0
KOD1 230559Z 11007KT 07/07 A298 RMK A01 T00710069  RH  099%=      5-min Rain = 0

Page generated in 0.196 seconds.